Private Wetterstation Wechselburg
Wetterdaten: Donnerstag, 27.04.2023
Datum Zeit Temp. +2m Bodentemp. Temp.+5cm Temp. Wind Windchill X Diff Temp. Feuchte +2m Feuchte +5cm Luftdruck Regen Wind Richtung Richtung Sonnenschein Taupunkt Windchill Windben
27.04.2023 00:00 3,1 C 11,4 C 1,8 C 2,5 C 1,2 C 0,0 C 77 % 61 % 1019,9 hPa 0,0 l/m 0,0 km/h (0 Bft) S 180 0 min -0,5 C 1,2 C 0,0 km/h (0 Bft)
27.04.2023 00:05 3,0 C 11,4 C 1,8 C 2,4 C 1,2 C 0,0 C 77 % 61 % 1019,9 hPa 0,0 l/m 0,0 km/h (0 Bft) S 180 0 min -0,6 C 1,2 C 0,0 km/h (0 Bft)
27.04.2023 00:11 2,9 C 11,4 C 1,8 C 2,4 C 1,3 C 0,0 C 78 % 62 % 1019,9 hPa 0,0 l/m 0,0 km/h (0 Bft) N 0 0 min -0,5 C 1,3 C 0,0 km/h (0 Bft)
27.04.2023 00:15 2,9 C 11,4 C 1,8 C 2,4 C 1,3 C 0,0 C 78 % 62 % 1019,9 hPa 0,0 l/m 0,0 km/h (0 Bft) N 0 0 min -0,5 C 1,3 C 0,0 km/h (0 Bft)
27.04.2023 00:20 2,8 C 11,4 C 1,8 C 2,3 C 1,3 C 0,0 C 78 % 63 % 1019,9 hPa 0,0 l/m 0,0 km/h (0 Bft) SW 225 0 min -0,6 C 1,3 C 0,0 km/h (0 Bft)
27.04.2023 00:25 2,8 C 11,4 C 1,7 C 2,3 C 1,2 C 0,0 C 78 % 63 % 1020,1 hPa 0,0 l/m 0,0 km/h (0 Bft) SW 225 0 min -0,6 C 1,2 C 0,0 km/h (0 Bft)
27.04.2023 00:30 2,8 C 11,4 C 1,6 C 2,2 C 1,1 C 0,0 C 78 % 64 % 1020,1 hPa 0,0 l/m 0,0 km/h (0 Bft) SW 225 0 min -0,6 C 1,1 C 0,0 km/h (0 Bft)
27.04.2023 00:35 2,7 C 11,4 C 1,3 C 2,1 C 1,0 C 0,0 C 78 % 63 % 1020,1 hPa 0,0 l/m 0,0 km/h (0 Bft) SW 225 0 min -0,7 C 1,0 C 0,0 km/h (0 Bft)
27.04.2023 00:40 2,7 C 11,4 C 1,0 C 2,1 C 0,8 C 0,0 C 78 % 63 % 1020,1 hPa 0,0 l/m 0,0 km/h (0 Bft) SW 225 0 min -0,7 C 0,8 C 0,0 km/h (0 Bft)
27.04.2023 00:45 2,5 C 11,4 C 0,9 C 1,8 C 0,5 C 0,0 C 79 % 63 % 1020,0 hPa 0,0 l/m 0,0 km/h (0 Bft) SW 225 0 min -0,8 C 0,5 C 0,0 km/h (0 Bft)
27.04.2023 00:50 2,3 C 11,4 C 0,8 C 1,6 C 0,3 C 0,0 C 79 % 64 % 1020,0 hPa 0,0 l/m 0,0 km/h (0 Bft) SW 225 0 min -1,0 C 0,3 C 0,0 km/h (0 Bft)
27.04.2023 00:55 2,3 C 11,4 C 0,8 C 1,6 C 0,2 C 0,0 C 79 % 64 % 1020,0 hPa 0,0 l/m 0,0 km/h (0 Bft) SW 225 0 min -1,0 C 0,2 C 0,0 km/h (0 Bft)
27.04.2023 01:00 2,1 C 11,4 C 0,7 C 1,5 C 0,2 C 0,0 C 79 % 64 % 1020,0 hPa 0,0 l/m 0,0 km/h (0 Bft) SW 225 0 min -1,2 C 0,2 C 0,0 km/h (0 Bft)
27.04.2023 01:05 2,0 C 11,4 C 0,7 C 1,3 C 0,0 C 0,0 C 79 % 64 % 1019,9 hPa 0,0 l/m 0,0 km/h (0 Bft) SW 225 0 min -1,2 C 0,0 C 0,0 km/h (0 Bft)
27.04.2023 01:10 2,0 C 11,5 C 0,3 C 1,3 C -0,2 C 0,0 C 80 % 64 % 1019,9 hPa 0,0 l/m 0,0 km/h (0 Bft) SW 225 0 min -1,1 C -0,2 C 0,0 km/h (0 Bft)
27.04.2023 01:16 1,7 C 11,5 C 0,2 C 0,9 C -0,6 C 0,0 C 80 % 64 % 1019,9 hPa 0,0 l/m 0,0 km/h (0 Bft) SW 225 0 min -1,4 C -0,6 C 0,0 km/h (0 Bft)
27.04.2023 01:20 1,7 C 11,5 C 0,2 C 0,9 C -0,6 C 0,0 C 80 % 64 % 1019,9 hPa 0,0 l/m 0,0 km/h (0 Bft) SW 225 0 min -1,4 C -0,6 C 0,0 km/h (0 Bft)
27.04.2023 01:27 1,6 C 11,5 C 0,0 C 0,9 C -0,5 C 0,0 C 81 % 64 % 1020,1 hPa 0,0 l/m 0,0 km/h (0 Bft) SW 225 0 min -1,3 C -0,5 C 0,0 km/h (0 Bft)
27.04.2023 01:28 1,6 C 11,5 C 0,0 C 0,9 C -0,5 C 0,0 C 81 % 64 % 1020,1 hPa 0,0 l/m 0,0 km/h (0 Bft) SW 225 0 min -1,3 C -0,5 C 0,0 km/h (0 Bft)
27.04.2023 01:29 1,6 C 11,5 C 0,0 C 0,9 C -0,5 C 0,0 C 81 % 64 % 1020,1 hPa 0,0 l/m 0,0 km/h (0 Bft) SW 225 0 min -1,3 C -0,5 C 0,0 km/h (0 Bft)
27.04.2023 01:30 1,5 C 11,5 C 0,0 C 0,8 C -0,5 C 0,0 C 80 % 65 % 1020,1 hPa 0,0 l/m 0,0 km/h (0 Bft) SW 225 0 min -1,6 C -0,5 C 0,0 km/h (0 Bft)
27.04.2023 01:31 1,5 C 11,5 C 0,0 C 0,8 C -0,5 C 0,0 C 80 % 65 % 1020,1 hPa 0,0 l/m 0,0 km/h (0 Bft) SW 225 0 min -1,6 C -0,5 C 0,0 km/h (0 Bft)
27.04.2023 01:33 1,5 C 11,5 C 0,0 C 0,8 C -0,5 C 0,0 C 80 % 65 % 1020,1 hPa 0,0 l/m 0,0 km/h (0 Bft) SW 225 0 min -1,6 C -0,5 C 0,0 km/h (0 Bft)
27.04.2023 01:35 1,5 C 11,5 C 0,0 C 0,8 C -0,5 C 0,0 C 80 % 65 % 1020,1 hPa 0,0 l/m 0,0 km/h (0 Bft) SW 225 0 min -1,6 C -0,5 C 0,0 km/h (0 Bft)
27.04.2023 01:40 1,4 C 11,4 C -0,2 C 0,7 C -0,7 C 0,0 C 81 % 64 % 1020,1 hPa 0,0 l/m 0,0 km/h (0 Bft) SW 225 0 min -1,5 C -0,7 C 0,0 km/h (0 Bft)
27.04.2023 01:45 1,2 C 11,5 C -0,2 C 0,5 C -0,8 C 0,0 C 81 % 64 % 1020,1 hPa 0,0 l/m 0,0 km/h (0 Bft) SW 225 0 min -1,7 C -0,8 C 0,0 km/h (0 Bft)
27.04.2023 01:50 1,2 C 11,4 C -0,2 C 0,5 C -0,9 C 0,0 C 81 % 65 % 1020,1 hPa 0,0 l/m 0,0 km/h (0 Bft) SW 225 0 min -1,7 C -0,9 C 0,0 km/h (0 Bft)
27.04.2023 01:55 1,0 C 11,4 C -0,2 C 0,3 C -1,1 C 0,0 C 81 % 65 % 1020,1 hPa 0,0 l/m 0,0 km/h (0 Bft) SW 225 0 min -1,9 C -1,1 C 0,0 km/h (0 Bft)
27.04.2023 02:00 0,9 C 11,4 C -0,5 C 0,2 C -1,3 C 0,0 C 81 % 65 % 1020,1 hPa 0,0 l/m 0,0 km/h (0 Bft) SW 225 0 min -2,0 C -1,3 C 0,0 km/h (0 Bft)
27.04.2023 02:05 0,8 C 11,4 C -0,5 C 0,1 C -1,4 C 0,0 C 81 % 65 % 1020,1 hPa 0,0 l/m 0,0 km/h (0 Bft) SW 225 0 min -2,1 C -1,4 C 0,0 km/h (0 Bft)
27.04.2023 02:10 0,6 C 11,4 C -0,7 C -0,1 C -1,5 C 0,0 C 81 % 65 % 1020,1 hPa 0,0 l/m 0,0 km/h (0 Bft) SW 225 0 min -2,3 C -1,5 C 0,0 km/h (0 Bft)
27.04.2023 02:15 0,5 C 11,4 C -0,7 C -0,2 C -1,6 C 0,0 C 81 % 64 % 1020,1 hPa 0,0 l/m 0,0 km/h (0 Bft) SW 225 0 min -2,4 C -1,6 C 0,0 km/h (0 Bft)
27.04.2023 02:20 0,4 C 11,4 C -0,8 C -0,3 C -1,7 C 0,0 C 81 % 64 % 1020,1 hPa 0,0 l/m 0,0 km/h (0 Bft) SW 225 0 min -2,5 C -1,7 C 0,0 km/h (0 Bft)
27.04.2023 02:25 0,4 C 11,4 C -0,9 C -0,3 C -1,8 C 0,0 C 82 % 64 % 1020,1 hPa 0,0 l/m 0,0 km/h (0 Bft) SW 225 0 min -2,3 C -1,8 C 0,0 km/h (0 Bft)
27.04.2023 02:30 0,4 C 11,4 C -1,1 C -0,3 C -1,8 C 0,0 C 82 % 64 % 1020,1 hPa 0,0 l/m 0,0 km/h (0 Bft) SW 225 0 min -2,3 C -1,8 C 0,0 km/h (0 Bft)
27.04.2023 02:35 0,3 C 11,4 C -1,2 C -0,4 C -1,9 C 0,0 C 82 % 64 % 1020,1 hPa 0,0 l/m 0,0 km/h (0 Bft) SW 225 0 min -2,4 C -1,9 C 0,0 km/h (0 Bft)
27.04.2023 02:40 0,2 C 11,3 C -1,0 C -0,5 C -1,9 C 0,0 C 82 % 65 % 1020,1 hPa 0,0 l/m 0,0 km/h (0 Bft) SW 225 0 min -2,5 C -1,9 C 0,0 km/h (0 Bft)
27.04.2023 02:45 0,0 C 11,3 C -1,1 C -0,7 C -2,1 C 0,0 C 82 % 65 % 1019,9 hPa 0,0 l/m 0,0 km/h (0 Bft) SW 225 0 min -2,7 C -2,1 C 0,0 km/h (0 Bft)
27.04.2023 02:50 -0,1 C 11,3 C -1,2 C -0,8 C -2,2 C 0,0 C 82 % 65 % 1019,9 hPa 0,0 l/m 0,0 km/h (0 Bft) SW 225 0 min -2,8 C -2,2 C 0,0 km/h (0 Bft)
27.04.2023 02:55 -0,1 C 11,3 C -1,2 C -0,8 C -2,3 C 0,0 C 82 % 64 % 1019,9 hPa 0,0 l/m 0,0 km/h (0 Bft) SW 225 0 min -2,8 C -2,3 C 0,0 km/h (0 Bft)
27.04.2023 03:00 -0,1 C 11,3 C -1,4 C -0,8 C -2,3 C 0,0 C 82 % 64 % 1019,9 hPa 0,0 l/m 0,0 km/h (0 Bft) SW 225 0 min -2,8 C -2,3 C 0,0 km/h (0 Bft)
27.04.2023 03:05 -0,3 C 11,3 C -1,4 C -1,0 C -2,3 C 0,0 C 82 % 64 % 1019,8 hPa 0,0 l/m 0,0 km/h (0 Bft) SW 225 0 min -3,0 C -2,3 C 0,0 km/h (0 Bft)
27.04.2023 03:10 -0,4 C 11,3 C -1,6 C -1,0 C -2,3 C 0,0 C 82 % 64 % 1019,8 hPa 0,0 l/m 0,0 km/h (0 Bft) SW 225 0 min -3,1 C -2,3 C 0,0 km/h (0 Bft)
27.04.2023 03:15 -0,4 C 11,3 C -1,5 C -1,0 C -2,3 C 0,0 C 83 % 64 % 1019,8 hPa 0,0 l/m 0,0 km/h (0 Bft) SW 225 0 min -2,9 C -2,3 C 0,0 km/h (0 Bft)
27.04.2023 03:20 -0,5 C 11,2 C -1,7 C -1,1 C -2,4 C 0,0 C 83 % 64 % 1019,8 hPa 0,0 l/m 0,0 km/h (0 Bft) SW 225 0 min -3,0 C -2,4 C 0,0 km/h (0 Bft)
27.04.2023 03:25 -0,5 C 11,2 C -1,7 C -1,1 C -2,4 C 0,0 C 83 % 64 % 1019,9 hPa 0,0 l/m 0,0 km/h (0 Bft) SW 225 0 min -3,0 C -2,4 C 0,0 km/h (0 Bft)
27.04.2023 03:30 -0,5 C 11,2 C -1,8 C -1,1 C -2,4 C 0,0 C 83 % 64 % 1019,9 hPa 0,0 l/m 0,0 km/h (0 Bft) SW 225 0 min -3,0 C -2,4 C 0,0 km/h (0 Bft)
27.04.2023 03:35 -0,5 C 11,2 C -1,8 C -1,2 C -2,5 C 0,0 C 83 % 64 % 1019,9 hPa 0,0 l/m 0,0 km/h (0 Bft) SW 225 0 min -3,0 C -2,5 C 0,0 km/h (0 Bft)
27.04.2023 03:40 -0,5 C 11,2 C -1,7 C -1,2 C -2,5 C 0,0 C 83 % 64 % 1019,9 hPa 0,0 l/m 0,0 km/h (0 Bft) SW 225 0 min -3,0 C -2,5 C 0,0 km/h (0 Bft)
27.04.2023 03:45 -0,5 C 11,2 C -1,7 C -1,1 C -2,4 C 0,0 C 83 % 64 % 1020,0 hPa 0,0 l/m 0,0 km/h (0 Bft) SW 225 0 min -3,0 C -2,4 C 0,0 km/h (0 Bft)
27.04.2023 03:50 -0,5 C 11,2 C -1,9 C -1,1 C -2,4 C 0,0 C 84 % 64 % 1020,0 hPa 0,0 l/m 0,0 km/h (0 Bft) SW 225 0 min -2,9 C -2,4 C 0,0 km/h (0 Bft)
27.04.2023 03:55 -0,7 C 11,2 C -1,9 C -1,3 C -2,6 C 0,0 C 84 % 64 % 1020,0 hPa 0,0 l/m 0,0 km/h (0 Bft) SW 225 0 min -3,1 C -2,6 C 0,0 km/h (0 Bft)
27.04.2023 04:00 -0,8 C 11,1 C -1,9 C -1,4 C -2,6 C 0,0 C 84 % 64 % 1020,0 hPa 0,0 l/m 0,0 km/h (0 Bft) SW 225 0 min -3,2 C -2,6 C 0,0 km/h (0 Bft)
27.04.2023 04:05 -0,8 C 11,1 C -2,0 C -1,4 C -2,6 C 0,0 C 84 % 64 % 1020,1 hPa 0,0 l/m 0,0 km/h (0 Bft) SW 225 0 min -3,2 C -2,6 C 0,0 km/h (0 Bft)
27.04.2023 04:10 -0,8 C 11,1 C -2,0 C -1,4 C -2,6 C 0,0 C 84 % 64 % 1020,1 hPa 0,0 l/m 0,0 km/h (0 Bft) SW 225 0 min -3,2 C -2,6 C 0,0 km/h (0 Bft)
27.04.2023 04:15 -0,7 C 11,1 C -1,9 C -1,3 C -2,6 C 0,0 C 84 % 65 % 1020,1 hPa 0,0 l/m 0,0 km/h (0 Bft) S 180 0 min -3,1 C -2,6 C 0,0 km/h (0 Bft)
27.04.2023 04:20 -0,7 C 11,1 C -1,9 C -1,3 C -2,6 C 0,0 C 84 % 65 % 1020,1 hPa 0,0 l/m 0,0 km/h (0 Bft) S 180 0 min -3,1 C -2,6 C 0,0 km/h (0 Bft)
27.04.2023 04:25 -0,9 C 11,1 C -2,1 C -1,5 C -2,6 C 0,0 C 84 % 65 % 1020,1 hPa 0,0 l/m 0,0 km/h (0 Bft) SW 225 0 min -3,3 C -2,6 C 0,0 km/h (0 Bft)
27.04.2023 04:30 -0,9 C 11,0 C -2,1 C -1,5 C -2,7 C 0,0 C 84 % 65 % 1020,1 hPa 0,0 l/m 0,0 km/h (0 Bft) SW 225 0 min -3,3 C -2,7 C 0,0 km/h (0 Bft)
27.04.2023 04:35 -0,9 C 11,0 C -2,1 C -1,5 C -2,8 C 0,0 C 84 % 65 % 1020,1 hPa 0,0 l/m 0,0 km/h (0 Bft) SW 225 0 min -3,3 C -2,8 C 0,0 km/h (0 Bft)
27.04.2023 04:40 -0,9 C 11,0 C -2,0 C -1,6 C -2,9 C 0,0 C 84 % 65 % 1020,1 hPa 0,0 l/m 0,0 km/h (0 Bft) SW 225 0 min -3,3 C -2,9 C 0,0 km/h (0 Bft)
27.04.2023 04:45 -0,9 C 11,0 C -2,0 C -1,5 C -2,7 C 0,0 C 84 % 66 % 1020,2 hPa 0,0 l/m 0,0 km/h (0 Bft) SW 225 0 min -3,3 C -2,7 C 0,0 km/h (0 Bft)
27.04.2023 04:50 -0,9 C 11,0 C -2,2 C -1,5 C -2,6 C 0,0 C 84 % 66 % 1020,2 hPa 0,0 l/m 0,0 km/h (0 Bft) SW 225 0 min -3,3 C -2,6 C 0,0 km/h (0 Bft)
27.04.2023 04:55 -0,9 C 11,0 C -2,4 C -1,5 C -2,6 C 0,0 C 85 % 65 % 1020,2 hPa 0,0 l/m 0,0 km/h (0 Bft) SW 225 0 min -3,1 C -2,6 C 0,0 km/h (0 Bft)
27.04.2023 05:00 -0,9 C 11,0 C -2,3 C -1,5 C -2,7 C 0,0 C 85 % 66 % 1020,2 hPa 0,0 l/m 0,0 km/h (0 Bft) SW 225 0 min -3,1 C -2,7 C 0,0 km/h (0 Bft)
27.04.2023 05:05 -1,1 C 11,0 C -2,2 C -1,6 C -2,7 C 0,0 C 85 % 66 % 1019,9 hPa 0,0 l/m 0,0 km/h (0 Bft) SW 225 0 min -3,3 C -2,7 C 0,0 km/h (0 Bft)
27.04.2023 05:10 -1,1 C 10,9 C -2,4 C -1,7 C -2,8 C 0,0 C 85 % 65 % 1019,9 hPa 0,0 l/m 0,0 km/h (0 Bft) SW 225 0 min -3,3 C -2,8 C 0,0 km/h (0 Bft)
27.04.2023 05:16 -1,3 C 10,9 C -2,5 C -1,9 C -3,2 C 0,0 C 85 % 65 % 1019,9 hPa 0,0 l/m 0,0 km/h (0 Bft) SW 225 0 min -3,5 C -3,2 C 0,0 km/h (0 Bft)
27.04.2023 05:20 -1,3 C 10,9 C -2,5 C -1,9 C -3,2 C 0,0 C 85 % 65 % 1019,9 hPa 0,0 l/m 0,0 km/h (0 Bft) SW 225 0 min -3,5 C -3,2 C 0,0 km/h (0 Bft)
27.04.2023 05:27 -1,3 C 10,9 C -2,5 C -1,9 C -3,2 C 0,0 C 85 % 65 % 1020,3 hPa 0,0 l/m 0,0 km/h (0 Bft) SW 225 0 min -3,5 C -3,2 C 0,0 km/h (0 Bft)
27.04.2023 05:28 -1,3 C 10,9 C -2,5 C -1,9 C -3,2 C 0,0 C 85 % 65 % 1020,3 hPa 0,0 l/m 0,0 km/h (0 Bft) SW 225 0 min -3,5 C -3,2 C 0,0 km/h (0 Bft)
27.04.2023 05:29 -1,3 C 10,9 C -2,5 C -1,9 C -3,2 C 0,0 C 85 % 65 % 1020,3 hPa 0,0 l/m 0,0 km/h (0 Bft) SW 225 0 min -3,5 C -3,2 C 0,0 km/h (0 Bft)
27.04.2023 05:30 -1,3 C 10,9 C -2,5 C -1,9 C -3,2 C 0,0 C 85 % 65 % 1020,3 hPa 0,0 l/m 0,0 km/h (0 Bft) SW 225 0 min -3,5 C -3,2 C 0,0 km/h (0 Bft)
27.04.2023 05:31 -1,3 C 10,9 C -2,5 C -1,9 C -3,2 C 0,0 C 85 % 65 % 1020,3 hPa 0,0 l/m 0,0 km/h (0 Bft) SW 225 0 min -3,5 C -3,2 C 0,0 km/h (0 Bft)
27.04.2023 05:33 -1,3 C 10,9 C -2,5 C -1,9 C -3,2 C 0,0 C 85 % 65 % 1020,3 hPa 0,0 l/m 0,0 km/h (0 Bft) SW 225 0 min -3,5 C -3,2 C 0,0 km/h (0 Bft)
27.04.2023 05:35 -1,3 C 10,9 C -2,5 C -1,9 C -3,2 C 0,0 C 85 % 65 % 1020,3 hPa 0,0 l/m 0,0 km/h (0 Bft) SW 225 0 min -3,5 C -3,2 C 0,0 km/h (0 Bft)
27.04.2023 05:40 -1,3 C 10,9 C -2,6 C -2,0 C -3,3 C 0,0 C 85 % 65 % 1020,3 hPa 0,0 l/m 0,0 km/h (0 Bft) SW 225 0 min -3,5 C -3,3 C 0,0 km/h (0 Bft)
27.04.2023 05:46 -1,5 C 10,9 C -2,6 C -2,1 C -3,4 C 0,0 C 85 % 65 % 1020,8 hPa 0,0 l/m 0,0 km/h (0 Bft) SW 225 0 min -3,7 C -3,4 C 0,0 km/h (0 Bft)
27.04.2023 05:50 -1,5 C 10,9 C -2,6 C -2,1 C -3,4 C 0,0 C 85 % 65 % 1020,8 hPa 0,0 l/m 0,0 km/h (0 Bft) SW 225 0 min -3,7 C -3,4 C 0,0 km/h (0 Bft)
27.04.2023 05:57 -1,5 C 10,9 C -2,7 C -1,9 C -2,8 C 0,0 C 85 % 65 % 1020,8 hPa 0,0 l/m 0,0 km/h (0 Bft) SW 225 0 min -3,7 C -2,8 C 0,0 km/h (0 Bft)
27.04.2023 05:58 -1,5 C 10,9 C -2,7 C -1,9 C -2,8 C 0,0 C 85 % 65 % 1020,8 hPa 0,0 l/m 0,0 km/h (0 Bft) SW 225 0 min -3,7 C -2,8 C 0,0 km/h (0 Bft)
27.04.2023 05:59 -1,5 C 10,9 C -2,7 C -1,9 C -2,8 C 0,0 C 85 % 65 % 1020,8 hPa 0,0 l/m 0,0 km/h (0 Bft) SW 225 0 min -3,7 C -2,8 C 0,0 km/h (0 Bft)
27.04.2023 06:00 -1,6 C 10,9 C -2,7 C -2,0 C -2,9 C 0,0 C 85 % 65 % 1020,7 hPa 0,0 l/m 0,0 km/h (0 Bft) SW 225 0 min -3,8 C -2,9 C 0,0 km/h (0 Bft)
27.04.2023 06:01 -1,6 C 10,9 C -2,7 C -2,0 C -2,9 C 0,0 C 85 % 65 % 1020,7 hPa 0,0 l/m 0,0 km/h (0 Bft) SW 225 0 min -3,8 C -2,9 C 0,0 km/h (0 Bft)
27.04.2023 06:03 -1,6 C 10,9 C -2,7 C -2,0 C -2,9 C 0,0 C 85 % 65 % 1020,7 hPa 0,0 l/m 0,0 km/h (0 Bft) SW 225 0 min -3,8 C -2,9 C 0,0 km/h (0 Bft)
27.04.2023 06:05 -1,6 C 10,9 C -2,7 C -2,0 C -2,9 C 0,0 C 85 % 65 % 1020,7 hPa 0,0 l/m 0,0 km/h (0 Bft) SW 225 0 min -3,8 C -2,9 C 0,0 km/h (0 Bft)
27.04.2023 06:10 -1,6 C 10,9 C -2,7 C -2,1 C -3,0 C 0,0 C 85 % 65 % 1020,7 hPa 0,0 l/m 0,0 km/h (0 Bft) SW 225 0 min -3,8 C -3,0 C 0,0 km/h (0 Bft)
27.04.2023 06:16 -1,5 C 10,7 C -2,4 C -2,0 C -2,9 C 0,0 C 86 % 65 % 1020,7 hPa 0,0 l/m 0,0 km/h (0 Bft) SW 225 0 min -3,5 C -2,9 C 0,0 km/h (0 Bft)
27.04.2023 06:20 -1,5 C 10,7 C -2,4 C -2,0 C -2,9 C 0,0 C 86 % 65 % 1020,7 hPa 0,0 l/m 0,0 km/h (0 Bft) SW 225 0 min -3,5 C -2,9 C 0,0 km/h (0 Bft)
27.04.2023 06:27 -1,3 C 10,7 C -2,2 C -1,8 C -2,7 C 0,0 C 86 % 66 % 1020,9 hPa 0,0 l/m 0,0 km/h (0 Bft) SO 135 0 min -3,3 C -2,7 C 0,0 km/h (0 Bft)
27.04.2023 06:28 -1,3 C 10,7 C -2,2 C -1,8 C -2,7 C 0,0 C 86 % 66 % 1020,9 hPa 0,0 l/m 0,0 km/h (0 Bft) SO 135 0 min -3,3 C -2,7 C 0,0 km/h (0 Bft)
27.04.2023 06:29 -1,3 C 10,7 C -2,2 C -1,8 C -2,7 C 0,0 C 86 % 66 % 1020,9 hPa 0,0 l/m 0,0 km/h (0 Bft) SO 135 0 min -3,3 C -2,7 C 0,0 km/h (0 Bft)
27.04.2023 06:30 -1,3 C 10,7 C -2,2 C -1,7 C -2,4 C 0,0 C 86 % 66 % 1020,9 hPa 0,0 l/m 0,0 km/h (0 Bft) SO 135 0 min -3,3 C -2,4 C 0,0 km/h (0 Bft)
27.04.2023 06:31 -1,3 C 10,7 C -2,2 C -1,7 C -2,4 C 0,0 C 86 % 66 % 1020,9 hPa 0,0 l/m 0,0 km/h (0 Bft) SO 135 0 min -3,3 C -2,4 C 0,0 km/h (0 Bft)
27.04.2023 06:33 -1,3 C 10,7 C -2,2 C -1,7 C -2,4 C 0,0 C 86 % 66 % 1020,9 hPa 0,0 l/m 0,0 km/h (0 Bft) SO 135 0 min -3,3 C -2,4 C 0,0 km/h (0 Bft)
27.04.2023 06:35 -1,3 C 10,7 C -2,2 C -1,7 C -2,4 C 0,0 C 86 % 66 % 1020,9 hPa 0,0 l/m 0,0 km/h (0 Bft) SO 135 0 min -3,3 C -2,4 C 0,0 km/h (0 Bft)
27.04.2023 06:40 -1,3 C 10,7 C -2,0 C -1,6 C -2,2 C 0,0 C 86 % 66 % 1020,9 hPa 0,0 l/m 0,0 km/h (0 Bft) SO 135 0 min -3,3 C -2,2 C 0,0 km/h (0 Bft)
27.04.2023 06:45 -1,3 C 10,7 C -1,8 C -1,5 C -1,9 C 0,0 C 86 % 67 % 1020,9 hPa 0,0 l/m 0,0 km/h (0 Bft) SO 135 0 min -3,3 C -1,9 C 0,0 km/h (0 Bft)
27.04.2023 06:50 -1,3 C 10,7 C -1,2 C -1,4 C -1,5 C 0,0 C 86 % 68 % 1020,9 hPa 0,0 l/m 0,0 km/h (0 Bft) SW 225 0 min -3,3 C -1,5 C 0,0 km/h (0 Bft)
27.04.2023 06:55 -1,2 C 10,7 C -0,7 C -1,2 C -1,2 C 0,0 C 86 % 68 % 1020,9 hPa 0,0 l/m 0,0 km/h (0 Bft) W-SW 247 0 min -3,2 C -1,2 C 0,0 km/h (0 Bft)
27.04.2023 07:00 -0,9 C 10,7 C -0,5 C -0,6 C -0,6 C 0,3 C 87 % 69 % 1020,9 hPa 0,0 l/m 0,0 km/h (0 Bft) W-SW 247 0 min -2,8 C -0,6 C 0,0 km/h (0 Bft)
27.04.2023 07:05 -0,9 C 10,7 C -0,1 C 0,1 C 0,1 C 1,0 C 87 % 70 % 1020,5 hPa 0,0 l/m 0,0 km/h (0 Bft) O-NO 67 0 min -2,8 C 0,1 C 0,0 km/h (0 Bft)
27.04.2023 07:10 -0,7 C 10,7 C 0,3 C 1,4 C 1,4 C 2,1 C 87 % 71 % 1020,5 hPa 0,0 l/m 0,0 km/h (0 Bft) NO 45 5 min -2,6 C 1,4 C 0,0 km/h (0 Bft)
27.04.2023 07:16 -0,5 C 10,6 C -0,1 C 0,8 C 0,8 C 1,3 C 87 % 71 % 1020,5 hPa 0,0 l/m 0,0 km/h (0 Bft) W-SW 247 0 min -2,4 C 0,8 C 0,0 km/h (0 Bft)
27.04.2023 07:20 -0,5 C 10,6 C -0,1 C 0,8 C 0,8 C 1,3 C 87 % 71 % 1020,5 hPa 0,0 l/m 0,0 km/h (0 Bft) W-SW 247 0 min -2,4 C 0,8 C 0,0 km/h (0 Bft)
27.04.2023 07:27 -0,1 C 10,6 C 0,6 C 2,0 C 2,0 C 2,1 C 88 % 71 % 1021,0 hPa 0,0 l/m 0,0 km/h (0 Bft) W-SW 247 0 min -1,8 C 2,0 C 0,0 km/h (0 Bft)
27.04.2023 07:28 -0,1 C 10,6 C 0,6 C 2,0 C 2,0 C 2,1 C 88 % 71 % 1021,0 hPa 0,0 l/m 0,0 km/h (0 Bft) W-SW 247 0 min -1,8 C 2,0 C 0,0 km/h (0 Bft)
27.04.2023 07:29 -0,1 C 10,6 C 0,6 C 2,0 C 2,0 C 2,1 C 88 % 71 % 1021,0 hPa 0,0 l/m 0,0 km/h (0 Bft) W-SW 247 0 min -1,8 C 2,0 C 0,0 km/h (0 Bft)
27.04.2023 07:30 0,0 C 10,6 C 0,7 C 3,3 C 3,3 C 3,3 C 88 % 71 % 1021,0 hPa 0,0 l/m 0,0 km/h (0 Bft) W-SW 247 1 min -1,7 C 3,3 C 0,0 km/h (0 Bft)
27.04.2023 07:31 0,0 C 10,6 C 0,7 C 3,3 C 3,3 C 3,3 C 88 % 71 % 1021,0 hPa 0,0 l/m 0,0 km/h (0 Bft) W-SW 247 1 min -1,7 C 3,3 C 0,0 km/h (0 Bft)
27.04.2023 07:33 0,0 C 10,6 C 0,7 C 3,3 C 3,3 C 3,3 C 88 % 71 % 1021,0 hPa 0,0 l/m 0,0 km/h (0 Bft) W-SW 247 2 min -1,7 C 3,3 C 0,0 km/h (0 Bft)
27.04.2023 07:35 0,0 C 10,6 C 0,7 C 3,3 C 3,3 C 3,3 C 88 % 71 % 1021,0 hPa 0,0 l/m 0,0 km/h (0 Bft) W-SW 247 2 min -1,7 C 3,3 C 0,0 km/h (0 Bft)
27.04.2023 07:40 0,3 C 10,6 C 0,7 C 3,3 C 3,3 C 3,0 C 88 % 71 % 1021,0 hPa 0,0 l/m 0,0 km/h (0 Bft) SW 225 5 min -1,4 C 3,3 C 0,0 km/h (0 Bft)
27.04.2023 07:45 0,4 C 10,6 C 0,9 C 5,0 C 5,0 C 4,6 C 88 % 71 % 1021,1 hPa 0,0 l/m 0,0 km/h (0 Bft) SW 225 5 min -1,3 C 5,0 C 0,0 km/h (0 Bft)
27.04.2023 07:50 0,8 C 10,5 C 1,4 C 7,6 C 7,6 C 6,8 C 88 % 72 % 1021,1 hPa 0,0 l/m 0,0 km/h (0 Bft) SW 225 5 min -1,0 C 7,6 C 0,0 km/h (0 Bft)
27.04.2023 07:55 0,8 C 10,6 C 1,5 C 7,7 C 7,7 C 6,9 C 88 % 72 % 1021,1 hPa 0,0 l/m 0,0 km/h (0 Bft) SW 225 5 min -1,0 C 7,7 C 0,0 km/h (0 Bft)
27.04.2023 08:00 1,0 C 10,5 C 1,8 C 8,2 C 8,2 C 7,2 C 88 % 72 % 1021,1 hPa 0,0 l/m 0,0 km/h (0 Bft) SW 225 5 min -0,8 C 8,2 C 0,0 km/h (0 Bft)
27.04.2023 08:05 1,1 C 10,4 C 2,4 C 9,6 C 9,6 C 8,5 C 88 % 72 % 1020,6 hPa 0,0 l/m 0,0 km/h (0 Bft) SW 225 5 min -0,7 C 9,6 C 0,0 km/h (0 Bft)
27.04.2023 08:11 1,6 C 10,2 C 3,6 C 11,9 C 11,9 C 10,3 C 88 % 73 % 1020,6 hPa 0,0 l/m 0,0 km/h (0 Bft) S-SW 202 6 min -0,2 C 11,9 C 0,0 km/h (0 Bft)
27.04.2023 08:15 1,6 C 10,2 C 3,6 C 11,9 C 11,9 C 10,3 C 88 % 73 % 1020,6 hPa 0,0 l/m 0,0 km/h (0 Bft) S-SW 202 4 min -0,2 C 11,9 C 0,0 km/h (0 Bft)
27.04.2023 08:22 2,3 C 10,2 C 4,2 C 11,9 C 11,9 C 9,6 C 89 % 72 % 1021,2 hPa 0,0 l/m 0,0 km/h (0 Bft) S-SW 202 7 min 0,7 C 11,9 C 0,0 km/h (0 Bft)
27.04.2023 08:23 2,3 C 10,2 C 4,2 C 11,9 C 11,9 C 9,6 C 89 % 72 % 1021,2 hPa 0,0 l/m 0,0 km/h (0 Bft) S-SW 202 1 min 0,7 C 11,9 C 0,0 km/h (0 Bft)
27.04.2023 08:24 2,3 C 10,2 C 4,2 C 11,9 C 11,9 C 9,6 C 89 % 72 % 1021,2 hPa 0,0 l/m 0,0 km/h (0 Bft) S-SW 202 1 min 0,7 C 11,9 C 0,0 km/h (0 Bft)
27.04.2023 08:25 2,7 C 10,2 C 4,5 C 10,8 C 10,8 C 8,1 C 88 % 71 % 1021,2 hPa 0,0 l/m 0,0 km/h (0 Bft) W-SW 247 1 min 0,9 C 10,8 C 0,0 km/h (0 Bft)
27.04.2023 08:26 2,7 C 10,2 C 4,5 C 10,8 C 10,8 C 8,1 C 88 % 71 % 1021,2 hPa 0,0 l/m 0,0 km/h (0 Bft) W-SW 247 1 min 0,9 C 10,8 C 0,0 km/h (0 Bft)
27.04.2023 08:28 2,7 C 10,2 C 4,5 C 10,8 C 10,8 C 8,1 C 88 % 71 % 1021,2 hPa 0,0 l/m 0,0 km/h (0 Bft) W-SW 247 2 min 0,9 C 10,8 C 0,0 km/h (0 Bft)
27.04.2023 08:30 2,7 C 10,2 C 4,5 C 10,8 C 10,8 C 8,1 C 88 % 71 % 1021,2 hPa 0,0 l/m 0,0 km/h (0 Bft) W-SW 247 2 min 0,9 C 10,8 C 0,0 km/h (0 Bft)
27.04.2023 08:35 2,9 C 10,2 C 4,5 C 10,5 C 10,5 C 7,6 C 88 % 70 % 1021,2 hPa 0,0 l/m 0,0 km/h (0 Bft) W-SW 247 5 min 1,1 C 10,5 C 0,0 km/h (0 Bft)
27.04.2023 08:41 3,5 C 10,2 C 4,9 C 9,9 C 9,9 C 6,4 C 88 % 68 % 1020,9 hPa 0,0 l/m 0,0 km/h (0 Bft) W-SW 247 6 min 1,7 C 9,9 C 0,0 km/h (0 Bft)
27.04.2023 08:45 3,5 C 10,2 C 4,9 C 9,9 C 9,9 C 6,4 C 88 % 68 % 1020,9 hPa 0,0 l/m 0,0 km/h (0 Bft) W-SW 247 4 min 1,7 C 9,9 C 0,0 km/h (0 Bft)
27.04.2023 08:52 4,3 C 10,1 C 5,1 C 11,0 C 11,0 C 6,7 C 88 % 65 % 1020,9 hPa 0,0 l/m 0,0 km/h (0 Bft) W-SW 247 7 min 2,5 C 11,0 C 0,0 km/h (0 Bft)
27.04.2023 08:53 4,3 C 10,1 C 5,1 C 11,0 C 11,0 C 6,7 C 88 % 65 % 1020,9 hPa 0,0 l/m 0,0 km/h (0 Bft) W-SW 247 1 min 2,5 C 11,0 C 0,0 km/h (0 Bft)
27.04.2023 08:54 4,3 C 10,1 C 5,1 C 11,0 C 11,0 C 6,7 C 88 % 65 % 1020,9 hPa 0,0 l/m 0,0 km/h (0 Bft) W-SW 247 1 min 2,5 C 11,0 C 0,0 km/h (0 Bft)
27.04.2023 08:55 4,7 C 10,2 C 5,3 C 11,3 C 11,3 C 6,6 C 88 % 65 % 1020,9 hPa 0,0 l/m 0,0 km/h (0 Bft) SW 225 1 min 2,9 C 11,3 C 0,0 km/h (0 Bft)
27.04.2023 08:56 4,7 C 10,2 C 5,3 C 11,3 C 11,3 C 6,6 C 88 % 65 % 1020,9 hPa 0,0 l/m 0,0 km/h (0 Bft) SW 225 1 min 2,9 C 11,3 C 0,0 km/h (0 Bft)
27.04.2023 08:58 4,7 C 10,2 C 5,3 C 11,3 C 11,3 C 6,6 C 88 % 65 % 1020,9 hPa 0,0 l/m 0,0 km/h (0 Bft) SW 225 2 min 2,9 C 11,3 C 0,0 km/h (0 Bft)
27.04.2023 09:00 4,7 C 10,2 C 5,3 C 11,3 C 11,3 C 6,6 C 88 % 65 % 1020,9 hPa 0,0 l/m 0,0 km/h (0 Bft) SW 225 2 min 2,9 C 11,3 C 0,0 km/h (0 Bft)
27.04.2023 09:09 5,5 C 10,2 C 6,3 C 12,4 C 12,4 C 6,9 C 87 % 62 % 1020,8 hPa 0,0 l/m 0,0 km/h (0 Bft) W 270 9 min 3,5 C 12,4 C 0,0 km/h (0 Bft)
27.04.2023 09:10 5,5 C 10,2 C 6,3 C 12,4 C 12,4 C 6,9 C 87 % 62 % 1020,8 hPa 0,0 l/m 0,0 km/h (0 Bft) W 270 1 min 3,5 C 12,4 C 0,0 km/h (0 Bft)
27.04.2023 09:20 6,0 C 10,2 C 6,7 C 11,9 C 11,9 C 5,9 C 84 % 58 % 1021,4 hPa 0,0 l/m 0,0 km/h (0 Bft) N-NO 22 10 min 3,5 C 11,9 C 0,0 km/h (0 Bft)
27.04.2023 09:21 6,0 C 10,2 C 6,7 C 11,9 C 11,9 C 5,9 C 84 % 58 % 1021,4 hPa 0,0 l/m 0,0 km/h (0 Bft) N-NO 22 1 min 3,5 C 11,9 C 0,0 km/h (0 Bft)
27.04.2023 09:22 6,0 C 10,2 C 6,7 C 11,9 C 11,9 C 5,9 C 84 % 58 % 1021,4 hPa 0,0 l/m 0,0 km/h (0 Bft) N-NO 22 1 min 3,5 C 11,9 C 0,0 km/h (0 Bft)
27.04.2023 09:23 6,0 C 10,2 C 6,7 C 11,9 C 11,9 C 5,9 C 84 % 58 % 1021,4 hPa 0,0 l/m 0,0 km/h (0 Bft) N-NO 22 1 min 3,5 C 11,9 C 0,0 km/h (0 Bft)
27.04.2023 09:24 6,0 C 10,2 C 6,7 C 11,9 C 11,9 C 5,9 C 84 % 58 % 1021,4 hPa 0,0 l/m 0,0 km/h (0 Bft) N-NO 22 1 min 3,5 C 11,9 C 0,0 km/h (0 Bft)
27.04.2023 09:26 6,3 C 10,2 C 7,1 C 12,1 C 12,1 C 5,8 C 83 % 59 % 1021,4 hPa 0,0 l/m 0,0 km/h (0 Bft) S-SO 157 2 min 3,6 C 12,1 C 0,0 km/h (0 Bft)
27.04.2023 09:30 6,3 C 10,2 C 7,1 C 12,1 C 12,1 C 5,8 C 83 % 59 % 1021,4 hPa 0,0 l/m 0,0 km/h (0 Bft) S-SO 157 4 min 3,6 C 12,1 C 0,0 km/h (0 Bft)
27.04.2023 09:35 6,4 C 10,2 C 7,4 C 12,4 C 12,4 C 6,0 C 82 % 58 % 1021,4 hPa 0,0 l/m 0,0 km/h (0 Bft) S-SO 157 5 min 3,6 C 12,4 C 0,0 km/h (0 Bft)
27.04.2023 09:40 6,9 C 10,2 C 7,9 C 13,0 C 13,0 C 6,1 C 80 % 56 % 1021,4 hPa 0,0 l/m 0,0 km/h (0 Bft) SW 225 5 min 3,7 C 13,0 C 0,0 km/h (0 Bft)
27.04.2023 09:45 6,9 C 10,2 C 7,9 C 12,8 C 12,8 C 5,9 C 78 % 52 % 1021,5 hPa 0,0 l/m 0,0 km/h (0 Bft) W 270 5 min 3,3 C 12,8 C 0,0 km/h (0 Bft)
27.04.2023 09:50 7,2 C 10,2 C 8,1 C 13,1 C 13,1 C 5,9 C 77 % 50 % 1021,5 hPa 0,0 l/m 0,0 km/h (0 Bft) SW 225 5 min 3,4 C 13,1 C 0,0 km/h (0 Bft)
27.04.2023 09:55 7,3 C 10,2 C 8,5 C 13,1 C 13,1 C 5,8 C 75 % 52 % 1021,5 hPa 0,0 l/m 0,0 km/h (0 Bft) S-SW 202 5 min 3,2 C 13,1 C 0,0 km/h (0 Bft)
27.04.2023 10:00 7,5 C 10,2 C 8,5 C 12,9 C 12,9 C 5,4 C 74 % 48 % 1021,5 hPa 0,0 l/m 0,0 km/h (0 Bft) SW 225 5 min 3,2 C 12,9 C 0,0 km/h (0 Bft)
27.04.2023 10:05 7,8 C 10,2 C 8,7 C 12,8 C 12,8 C 5,0 C 73 % 48 % 1021,8 hPa 0,0 l/m 0,0 km/h (0 Bft) W-SW 247 5 min 3,3 C 12,8 C 0,0 km/h (0 Bft)
27.04.2023 10:11 8,0 C 10,2 C 8,8 C 13,6 C 13,6 C 5,6 C 70 % 47 % 1021,8 hPa 0,0 l/m 0,0 km/h (0 Bft) S-SW 202 6 min 2,9 C 13,6 C 0,0 km/h (0 Bft)
27.04.2023 10:15 8,0 C 10,2 C 8,8 C 13,6 C 13,6 C 5,6 C 70 % 47 % 1021,8 hPa 0,0 l/m 0,0 km/h (0 Bft) S-SW 202 4 min 2,9 C 13,6 C 0,0 km/h (0 Bft)
27.04.2023 10:22 8,4 C 10,2 C 8,6 C 14,9 C 14,9 C 6,5 C 68 % 46 % 1021,2 hPa 0,0 l/m 0,0 km/h (0 Bft) SW 225 7 min 2,8 C 14,9 C 0,0 km/h (0 Bft)
27.04.2023 10:23 8,4 C 10,2 C 8,6 C 14,9 C 14,9 C 6,5 C 68 % 46 % 1021,2 hPa 0,0 l/m 0,0 km/h (0 Bft) SW 225 1 min 2,8 C 14,9 C 0,0 km/h (0 Bft)
27.04.2023 10:24 8,4 C 10,2 C 8,6 C 14,9 C 14,9 C 6,5 C 68 % 46 % 1021,2 hPa 0,0 l/m 0,0 km/h (0 Bft) SW 225 1 min 2,8 C 14,9 C 0,0 km/h (0 Bft)
27.04.2023 10:25 8,5 C 10,2 C 9,2 C 15,0 C 15,0 C 6,5 C 66 % 46 % 1021,2 hPa 0,0 l/m 0,3 km/h (0 Bft) S-SO 157 1 min 2,5 C 15,0 C 2,9 km/h (1 Bft)
27.04.2023 10:26 8,5 C 10,2 C 9,2 C 15,0 C 15,0 C 6,5 C 66 % 46 % 1021,2 hPa 0,0 l/m 0,3 km/h (0 Bft) S-SO 157 1 min 2,5 C 15,0 C 2,9 km/h (1 Bft)
27.04.2023 10:28 8,5 C 10,2 C 9,2 C 15,0 C 15,0 C 6,5 C 66 % 46 % 1021,2 hPa 0,0 l/m 0,3 km/h (0 Bft) S-SO 157 2 min 2,5 C 15,0 C 2,9 km/h (1 Bft)
27.04.2023 10:30 8,5 C 10,2 C 9,2 C 15,0 C 15,0 C 6,5 C 66 % 46 % 1021,2 hPa 0,0 l/m 0,3 km/h (0 Bft) S-SO 157 2 min 2,5 C 15,0 C 2,9 km/h (1 Bft)
27.04.2023 10:35 8,6 C 10,2 C 9,5 C 15,0 C 15,0 C 6,4 C 65 % 44 % 1021,2 hPa 0,0 l/m 1,1 km/h (1 Bft) SW 225 5 min 2,4 C 15,0 C 3,9 km/h (1 Bft)
27.04.2023 10:40 8,7 C 10,3 C 9,8 C 14,6 C 14,6 C 5,9 C 63 % 42 % 1021,2 hPa 0,0 l/m 1,1 km/h (1 Bft) S-SO 157 5 min 2,1 C 14,6 C 5,8 km/h (2 Bft)
27.04.2023 10:45 8,8 C 10,3 C 9,8 C 14,6 C 14,6 C 5,8 C 64 % 44 % 1022,0 hPa 0,0 l/m 1,0 km/h (0 Bft) S 180 5 min 2,4 C 14,6 C 0,0 km/h (0 Bft)
27.04.2023 10:50 8,9 C 10,3 C 10,0 C 14,5 C 14,5 C 5,6 C 63 % 43 % 1022,0 hPa 0,0 l/m 0,6 km/h (0 Bft) S-SW 202 5 min 2,2 C 14,5 C 7,4 km/h (2 Bft)
27.04.2023 10:56 8,9 C 10,3 C 10,0 C 13,9 C 13,9 C 5,0 C 60 % 42 % 1022,0 hPa 0,0 l/m 1,3 km/h (1 Bft) SW 225 6 min 1,6 C 13,9 C 4,0 km/h (1 Bft)
27.04.2023 11:00 8,9 C 10,3 C 10,0 C 13,9 C 13,9 C 5,0 C 60 % 42 % 1022,0 hPa 0,0 l/m 1,3 km/h (1 Bft) SW 225 4 min 1,6 C 13,9 C 4,0 km/h (1 Bft)
27.04.2023 11:07 9,1 C 10,3 C 10,4 C 13,7 C 13,7 C 4,6 C 59 % 41 % 1021,5 hPa 0,0 l/m 1,4 km/h (1 Bft) S-SW 202 7 min 1,5 C 13,7 C 7,1 km/h (2 Bft)
27.04.2023 11:08 9,1 C 10,3 C 10,4 C 13,7 C 13,7 C 4,6 C 59 % 41 % 1021,5 hPa 0,0 l/m 1,4 km/h (1 Bft) S-SW 202 1 min 1,5 C 13,7 C 7,1 km/h (2 Bft)
27.04.2023 11:09 9,1 C 10,3 C 10,4 C 13,7 C 13,7 C 4,6 C 59 % 41 % 1021,5 hPa 0,0 l/m 1,4 km/h (1 Bft) S-SW 202 1 min 1,5 C 13,7 C 7,1 km/h (2 Bft)
27.04.2023 11:15 9,1 C 10,4 C 10,8 C 13,6 C 13,6 C 4,5 C 59 % 41 % 1021,5 hPa 0,0 l/m 1,3 km/h (1 Bft) SW 225 6 min 1,5 C 13,6 C 0,0 km/h (0 Bft)
27.04.2023 11:21 9,2 C 10,3 C 11,7 C 13,2 C 13,2 C 4,0 C 59 % 38 % 1021,7 hPa 0,0 l/m 0,5 km/h (0 Bft) SW 225 6 min 1,6 C 13,2 C 0,0 km/h (0 Bft)
27.04.2023 11:22 9,2 C 10,3 C 11,7 C 13,2 C 13,2 C 4,0 C 59 % 38 % 1021,7 hPa 0,0 l/m 0,5 km/h (0 Bft) SW 225 1 min 1,6 C 13,2 C 0,0 km/h (0 Bft)
27.04.2023 11:23 9,2 C 10,3 C 11,7 C 13,2 C 13,2 C 4,0 C 59 % 38 % 1021,7 hPa 0,0 l/m 0,5 km/h (0 Bft) SW 225 1 min 1,6 C 13,2 C 0,0 km/h (0 Bft)
27.04.2023 11:24 9,2 C 10,3 C 11,7 C 13,2 C 13,2 C 4,0 C 59 % 38 % 1021,7 hPa 0,0 l/m 0,5 km/h (0 Bft) SW 225 1 min 1,6 C 13,2 C 0,0 km/h (0 Bft)
27.04.2023 11:25 9,3 C 10,4 C 12,5 C 12,8 C 12,8 C 3,5 C 58 % 41 % 1021,7 hPa 0,0 l/m 1,4 km/h (1 Bft) SW 225 1 min 1,5 C 12,8 C 3,2 km/h (1 Bft)
27.04.2023 11:27 9,3 C 10,4 C 12,5 C 12,8 C 12,8 C 3,5 C 58 % 41 % 1021,7 hPa 0,0 l/m 1,4 km/h (1 Bft) SW 225 2 min 1,5 C 12,8 C 3,2 km/h (1 Bft)
27.04.2023 11:30 9,3 C 10,4 C 12,5 C 12,8 C 12,8 C 3,5 C 58 % 41 % 1021,7 hPa 0,0 l/m 1,4 km/h (1 Bft) SW 225 3 min 1,5 C 12,8 C 3,2 km/h (1 Bft)
27.04.2023 11:35 9,3 C 10,4 C 12,4 C 13,0 C 13,0 C 3,7 C 57 % 38 % 1021,7 hPa 0,0 l/m 2,3 km/h (1 Bft) SW 225 5 min 1,2 C 13,0 C 6,6 km/h (2 Bft)
27.04.2023 11:40 9,5 C 10,4 C 12,8 C 12,9 C 12,9 C 3,4 C 56 % 37 % 1021,7 hPa 0,0 l/m 3,2 km/h (1 Bft) SW 225 5 min 1,2 C 12,9 C 8,9 km/h (2 Bft)
27.04.2023 11:45 9,4 C 10,4 C 12,3 C 12,8 C 12,8 C 3,4 C 55 % 37 % 1021,9 hPa 0,0 l/m 3,2 km/h (1 Bft) S 180 5 min 0,8 C 12,8 C 2,4 km/h (1 Bft)
27.04.2023 11:50 9,6 C 10,5 C 13,4 C 13,7 C 13,7 C 4,1 C 56 % 37 % 1021,9 hPa 0,0 l/m 2,1 km/h (1 Bft) NO 45 5 min 1,3 C 13,7 C 0,0 km/h (0 Bft)
27.04.2023 11:55 9,9 C 10,5 C 13,0 C 13,8 C 13,8 C 3,9 C 55 % 36 % 1021,9 hPa 0,0 l/m 1,6 km/h (1 Bft) N-NW 337 5 min 1,3 C 13,8 C 2,4 km/h (1 Bft)
27.04.2023 12:00 9,9 C 10,5 C 11,7 C 13,3 C 13,3 C 3,4 C 54 % 33 % 1021,9 hPa 0,0 l/m 0,8 km/h (0 Bft) NW 315 5 min 1,0 C 13,3 C 9,0 km/h (2 Bft)
27.04.2023 12:06 10,3 C 10,5 C 13,0 C 15,3 C 15,3 C 5,0 C 54 % 33 % 1021,1 hPa 0,0 l/m 0,6 km/h (0 Bft) NW 315 6 min 1,4 C 15,3 C 0,0 km/h (0 Bft)
27.04.2023 12:10 10,3 C 10,5 C 13,0 C 15,3 C 15,3 C 5,0 C 54 % 33 % 1021,1 hPa 0,0 l/m 0,6 km/h (0 Bft) NW 315 4 min 1,4 C 15,3 C 0,0 km/h (0 Bft)
27.04.2023 12:17 10,7 C 10,6 C 12,4 C 15,9 C 15,9 C 5,2 C 53 % 34 % 1021,1 hPa 0,0 l/m 0,6 km/h (0 Bft) N-NO 22 7 min 1,5 C 15,9 C 0,0 km/h (0 Bft)
27.04.2023 12:18 10,7 C 10,6 C 12,4 C 15,9 C 15,9 C 5,2 C 53 % 34 % 1021,1 hPa 0,0 l/m 0,6 km/h (0 Bft) N-NO 22 1 min 1,5 C 15,9 C 0,0 km/h (0 Bft)
27.04.2023 12:19 10,7 C 10,6 C 12,4 C 15,9 C 15,9 C 5,2 C 53 % 34 % 1021,1 hPa 0,0 l/m 0,6 km/h (0 Bft) N-NO 22 1 min 1,5 C 15,9 C 0,0 km/h (0 Bft)
27.04.2023 12:20 10,7 C 10,6 C 12,2 C 15,8 C 15,8 C 5,1 C 53 % 33 % 1021,4 hPa 0,0 l/m 0,3 km/h (0 Bft) SW 225 1 min 1,5 C 15,8 C 2,9 km/h (1 Bft)
27.04.2023 12:21 10,7 C 10,6 C 12,2 C 15,8 C 15,8 C 5,1 C 53 % 33 % 1021,4 hPa 0,0 l/m 0,3 km/h (0 Bft) SW 225 1 min 1,5 C 15,8 C 2,9 km/h (1 Bft)
27.04.2023 12:23 10,7 C 10,6 C 12,2 C 15,8 C 15,8 C 5,1 C 53 % 33 % 1021,4 hPa 0,0 l/m 0,3 km/h (0 Bft) SW 225 2 min 1,5 C 15,8 C 2,9 km/h (1 Bft)
27.04.2023 12:25 10,7 C 10,6 C 12,2 C 15,8 C 15,8 C 5,1 C 53 % 33 % 1021,4 hPa 0,0 l/m 0,3 km/h (0 Bft) SW 225 2 min 1,5 C 15,8 C 2,9 km/h (1 Bft)
27.04.2023 12:30 10,7 C 10,6 C 12,2 C 15,5 C 15,5 C 4,8 C 52 % 33 % 1021,4 hPa 0,0 l/m 0,3 km/h (0 Bft) SW 225 5 min 1,3 C 15,5 C 0,0 km/h (0 Bft)
27.04.2023 12:35 10,8 C 10,6 C 12,4 C 16,9 C 16,9 C 6,1 C 52 % 33 % 1021,4 hPa 0,0 l/m 0,5 km/h (0 Bft) N 360 5 min 1,3 C 16,9 C 0,0 km/h (0 Bft)
27.04.2023 12:40 10,8 C 10,6 C 11,1 C 16,0 C 16,0 C 5,2 C 50 % 31 % 1021,4 hPa 0,0 l/m 0,5 km/h (0 Bft) W-NW 292 5 min 0,8 C 16,0 C 2,1 km/h (1 Bft)
27.04.2023 12:45 10,6 C 10,6 C 11,8 C 15,4 C 15,4 C 4,8 C 51 % 34 % 1021,6 hPa 0,0 l/m 0,6 km/h (0 Bft) W 270 5 min 0,9 C 15,4 C 0,0 km/h (0 Bft)
27.04.2023 12:51 11,2 C 10,7 C 12,1 C 16,7 C 16,7 C 5,5 C 51 % 32 % 1021,6 hPa 0,0 l/m 1,0 km/h (0 Bft) SW 225 6 min 1,4 C 16,7 C 0,0 km/h (0 Bft)
27.04.2023 12:55 11,2 C 10,7 C 12,1 C 16,7 C 16,7 C 5,5 C 51 % 32 % 1021,6 hPa 0,0 l/m 1,0 km/h (0 Bft) SW 225 4 min 1,4 C 16,7 C 0,0 km/h (0 Bft)
27.04.2023 13:02 11,3 C 10,7 C 12,9 C 17,1 C 17,1 C 5,8 C 50 % 33 % 1021,2 hPa 0,0 l/m 0,8 km/h (0 Bft) W-NW 292 7 min 1,3 C 17,1 C 0,0 km/h (0 Bft)
27.04.2023 13:03 11,3 C 10,7 C 12,9 C 17,1 C 17,1 C 5,8 C 50 % 33 % 1021,2 hPa 0,0 l/m 0,8 km/h (0 Bft) W-NW 292 1 min 1,3 C 17,1 C 0,0 km/h (0 Bft)
27.04.2023 13:04 11,3 C 10,7 C 12,9 C 17,1 C 17,1 C 5,8 C 50 % 33 % 1021,2 hPa 0,0 l/m 0,8 km/h (0 Bft) W-NW 292 1 min 1,3 C 17,1 C 0,0 km/h (0 Bft)
27.04.2023 13:05 11,4 C 10,7 C 12,3 C 17,1 C 17,1 C 5,7 C 50 % 33 % 1021,2 hPa 0,0 l/m 0,5 km/h (0 Bft) O-SO 112 1 min 1,4 C 17,1 C 0,0 km/h (0 Bft)
27.04.2023 13:06 11,4 C 10,7 C 12,3 C 17,1 C 17,1 C 5,7 C 50 % 33 % 1021,2 hPa 0,0 l/m 0,5 km/h (0 Bft) O-SO 112 1 min 1,4 C 17,1 C 0,0 km/h (0 Bft)
27.04.2023 13:08 11,4 C 10,7 C 12,3 C 17,1 C 17,1 C 5,7 C 50 % 33 % 1021,2 hPa 0,0 l/m 0,5 km/h (0 Bft) O-SO 112 2 min 1,4 C 17,1 C 0,0 km/h (0 Bft)
27.04.2023 13:10 11,4 C 10,7 C 12,3 C 17,1 C 17,1 C 5,7 C 50 % 33 % 1021,2 hPa 0,0 l/m 0,5 km/h (0 Bft) O-SO 112 2 min 1,4 C 17,1 C 0,0 km/h (0 Bft)
27.04.2023 13:15 11,3 C 10,7 C 11,8 C 16,4 C 16,4 C 5,1 C 50 % 32 % 1021,2 hPa 0,0 l/m 0,3 km/h (0 Bft) SO 135 5 min 1,3 C 16,4 C 0,0 km/h (0 Bft)
27.04.2023 13:20 11,1 C 10,7 C 11,6 C 15,3 C 15,3 C 4,2 C 50 % 34 % 1021,2 hPa 0,0 l/m 0,8 km/h (0 Bft) W-SW 247 5 min 1,1 C 15,3 C 0,0 km/h (0 Bft)
27.04.2023 13:25 10,9 C 10,7 C 11,6 C 14,6 C 14,6 C 3,7 C 50 % 34 % 1021,4 hPa 0,0 l/m 2,1 km/h (1 Bft) SW 225 5 min 0,9 C 14,6 C 5,3 km/h (1 Bft)
27.04.2023 13:30 10,7 C 10,7 C 12,0 C 14,1 C 14,1 C 3,4 C 50 % 32 % 1021,4 hPa 0,0 l/m 2,1 km/h (1 Bft) SW 225 5 min 0,7 C 14,1 C 0,0 km/h (0 Bft)
27.04.2023 13:35 11,1 C 10,7 C 13,0 C 15,8 C 15,8 C 4,7 C 52 % 35 % 1021,4 hPa 0,0 l/m 1,4 km/h (1 Bft) NW 315 5 min 1,6 C 15,8 C 0,0 km/h (0 Bft)
27.04.2023 13:40 11,5 C 10,7 C 13,3 C 16,3 C 16,3 C 4,8 C 50 % 35 % 1021,4 hPa 0,0 l/m 1,4 km/h (1 Bft) NW 315 5 min 1,4 C 16,3 C 10,6 km/h (2 Bft)
27.04.2023 13:45 11,7 C 10,7 C 13,7 C 17,2 C 17,2 C 5,5 C 50 % 35 % 1021,5 hPa 0,0 l/m 2,4 km/h (1 Bft) S-SW 202 5 min 1,6 C 17,2 C 2,4 km/h (1 Bft)
27.04.2023 13:50 11,2 C 10,7 C 12,6 C 15,8 C 15,8 C 4,6 C 48 % 32 % 1021,5 hPa 0,0 l/m 2,9 km/h (1 Bft) W-SW 247 5 min 0,6 C 15,8 C 11,3 km/h (2 Bft)
27.04.2023 13:55 11,3 C 10,9 C 13,0 C 16,2 C 16,2 C 4,9 C 49 % 32 % 1021,5 hPa 0,0 l/m 2,3 km/h (1 Bft) SW 225 5 min 1,0 C 16,2 C 0,0 km/h (0 Bft)
27.04.2023 14:01 11,5 C 10,9 C 12,0 C 16,4 C 16,4 C 4,9 C 48 % 31 % 1021,9 hPa 0,0 l/m 1,4 km/h (1 Bft) S-SO 157 6 min 0,9 C 16,4 C 1,9 km/h (1 Bft)
27.04.2023 14:05 11,5 C 10,9 C 12,0 C 16,4 C 16,4 C 4,9 C 48 % 31 % 1021,9 hPa 0,0 l/m 1,4 km/h (1 Bft) S-SO 157 4 min 0,9 C 16,4 C 1,9 km/h (1 Bft)
27.04.2023 14:12 11,4 C 10,9 C 12,8 C 15,5 C 15,5 C 4,1 C 49 % 34 % 1021,9 hPa 0,0 l/m 1,0 km/h (0 Bft) SW 225 7 min 1,1 C 15,5 C 1,8 km/h (1 Bft)
27.04.2023 14:13 11,4 C 10,9 C 12,8 C 15,5 C 15,5 C 4,1 C 49 % 34 % 1021,9 hPa 0,0 l/m 1,0 km/h (0 Bft) SW 225 1 min 1,1 C 15,5 C 1,8 km/h (1 Bft)
27.04.2023 14:14 11,4 C 10,9 C 12,8 C 15,5 C 15,5 C 4,1 C 49 % 34 % 1021,9 hPa 0,0 l/m 1,0 km/h (0 Bft) SW 225 1 min 1,1 C 15,5 C 1,8 km/h (1 Bft)
27.04.2023 14:15 11,6 C 10,9 C 13,1 C 15,8 C 15,8 C 4,2 C 48 % 34 % 1021,9 hPa 0,0 l/m 1,1 km/h (1 Bft) W-SW 247 1 min 1,0 C 15,8 C 2,1 km/h (1 Bft)
27.04.2023 14:16 11,6 C 10,9 C 13,1 C 15,8 C 15,8 C 4,2 C 48 % 34 % 1021,9 hPa 0,0 l/m 1,1 km/h (1 Bft) W-SW 247 1 min 1,0 C 15,8 C 2,1 km/h (1 Bft)
27.04.2023 14:18 11,6 C 10,9 C 13,1 C 15,8 C 15,8 C 4,2 C 48 % 34 % 1021,9 hPa 0,0 l/m 1,1 km/h (1 Bft) W-SW 247 2 min 1,0 C 15,8 C 2,1 km/h (1 Bft)
27.04.2023 14:20 11,6 C 10,9 C 13,1 C 15,8 C 15,8 C 4,2 C 48 % 34 % 1021,9 hPa 0,0 l/m 1,1 km/h (1 Bft) W-SW 247 2 min 1,0 C 15,8 C 2,1 km/h (1 Bft)
27.04.2023 14:25 11,6 C 11,0 C 13,6 C 16,0 C 16,0 C 4,4 C 48 % 35 % 1021,6 hPa 0,0 l/m 0,6 km/h (0 Bft) S 180 5 min 1,0 C 16,0 C 2,1 km/h (1 Bft)
27.04.2023 14:30 11,7 C 11,0 C 13,3 C 16,1 C 16,1 C 4,4 C 49 % 34 % 1021,6 hPa 0,0 l/m 1,0 km/h (0 Bft) SW 225 5 min 1,3 C 16,1 C 0,0 km/h (0 Bft)
27.04.2023 14:35 11,9 C 11,0 C 14,1 C 16,6 C 16,6 C 4,7 C 49 % 32 % 1021,6 hPa 0,0 l/m 1,3 km/h (1 Bft) NW 315 5 min 1,5 C 16,6 C 0,0 km/h (0 Bft)
27.04.2023 14:40 12,3 C 10,9 C 14,8 C 18,1 C 18,1 C 5,8 C 49 % 34 % 1021,6 hPa 0,0 l/m 1,1 km/h (1 Bft) W 270 5 min 1,9 C 18,1 C 3,5 km/h (1 Bft)
27.04.2023 14:45 12,5 C 10,9 C 14,2 C 18,6 C 18,6 C 6,1 C 48 % 32 % 1021,6 hPa 0,0 l/m 1,0 km/h (0 Bft) S 180 5 min 1,8 C 18,6 C 1,8 km/h (1 Bft)
27.04.2023 14:50 12,8 C 11,0 C 14,8 C 18,6 C 18,6 C 5,8 C 47 % 34 % 1021,6 hPa 0,0 l/m 1,1 km/h (1 Bft) SW 225 5 min 1,8 C 18,6 C 6,1 km/h (2 Bft)
27.04.2023 14:55 12,7 C 11,0 C 14,6 C 18,3 C 18,3 C 5,6 C 46 % 34 % 1021,6 hPa 0,0 l/m 2,4 km/h (1 Bft) SW 225 5 min 1,4 C 18,3 C 6,1 km/h (2 Bft)
27.04.2023 15:00 12,6 C 11,0 C 13,2 C 17,9 C 17,9 C 5,3 C 47 % 34 % 1021,6 hPa 0,0 l/m 2,4 km/h (1 Bft) SO 135 5 min 1,6 C 17,9 C 0,0 km/h (0 Bft)
27.04.2023 15:05 12,5 C 11,0 C 13,0 C 17,6 C 17,6 C 5,1 C 47 % 32 % 1021,2 hPa 0,0 l/m 1,1 km/h (1 Bft) SW 225 5 min 1,5 C 17,6 C 2,1 km/h (1 Bft)
27.04.2023 15:10 12,7 C 11,1 C 13,4 C 18,0 C 18,0 C 5,3 C 47 % 35 % 1021,2 hPa 0,0 l/m 2,4 km/h (1 Bft) W-SW 247 5 min 1,7 C 18,0 C 5,6 km/h (1 Bft)
27.04.2023 15:15 12,7 C 11,1 C 13,3 C 18,0 C 18,0 C 5,3 C 47 % 35 % 1021,2 hPa 0,0 l/m 2,9 km/h (1 Bft) SW 225 5 min 1,7 C 18,0 C 2,3 km/h (1 Bft)
27.04.2023 15:20 12,7 C 11,1 C 12,2 C 18,5 C 18,5 C 5,8 C 46 % 31 % 1021,2 hPa 0,0 l/m 2,1 km/h (1 Bft) W-SW 247 5 min 1,4 C 18,5 C 0,0 km/h (0 Bft)
27.04.2023 15:25 12,8 C 11,1 C 12,4 C 19,5 C 19,5 C 6,7 C 46 % 33 % 1021,9 hPa 0,0 l/m 1,1 km/h (1 Bft) S-SO 157 5 min 1,5 C 19,5 C 0,0 km/h (0 Bft)
27.04.2023 15:30 13,3 C 11,2 C 12,8 C 20,2 C 20,2 C 6,9 C 47 % 35 % 1021,9 hPa 0,0 l/m 1,0 km/h (0 Bft) S 180 5 min 2,2 C 20,2 C 5,3 km/h (1 Bft)
27.04.2023 15:35 13,0 C 11,2 C 12,8 C 19,2 C 19,2 C 6,2 C 46 % 35 % 1021,9 hPa 0,0 l/m 2,6 km/h (1 Bft) S-SW 202 5 min 1,7 C 19,2 C 3,1 km/h (1 Bft)
27.04.2023 15:40 13,1 C 11,2 C 13,2 C 18,9 C 18,9 C 5,8 C 47 % 36 % 1021,9 hPa 0,0 l/m 3,2 km/h (1 Bft) SW 225 5 min 2,0 C 18,9 C 3,9 km/h (1 Bft)
27.04.2023 15:45 13,0 C 11,2 C 12,8 C 18,5 C 18,5 C 5,5 C 46 % 35 % 1021,2 hPa 0,0 l/m 2,6 km/h (1 Bft) W-SW 247 5 min 1,7 C 18,5 C 4,3 km/h (1 Bft)
27.04.2023 15:50 12,6 C 11,2 C 12,4 C 16,9 C 16,9 C 4,3 C 47 % 34 % 1021,2 hPa 0,0 l/m 2,3 km/h (1 Bft) W-SW 247 5 min 1,6 C 16,9 C 8,5 km/h (2 Bft)
27.04.2023 15:55 12,5 C 11,2 C 12,0 C 16,0 C 16,0 C 3,5 C 47 % 34 % 1021,2 hPa 0,0 l/m 1,8 km/h (1 Bft) SW 225 5 min 1,5 C 16,0 C 4,8 km/h (1 Bft)
27.04.2023 16:00 12,3 C 11,2 C 12,3 C 15,3 C 15,3 C 3,0 C 47 % 37 % 1021,2 hPa 0,0 l/m 2,1 km/h (1 Bft) W-SW 247 0 min 1,3 C 15,3 C 0,0 km/h (0 Bft)
27.04.2023 16:05 12,5 C 11,3 C 12,6 C 16,3 C 16,3 C 3,8 C 48 % 36 % 1021,1 hPa 0,0 l/m 1,9 km/h (1 Bft) S 180 5 min 1,8 C 16,3 C 0,0 km/h (0 Bft)
27.04.2023 16:10 12,7 C 11,3 C 12,4 C 16,7 C 16,7 C 4,0 C 47 % 34 % 1021,1 hPa 0,0 l/m 1,1 km/h (1 Bft) S-SW 202 5 min 1,7 C 16,7 C 1,8 km/h (1 Bft)
27.04.2023 16:15 12,7 C 11,3 C 12,6 C 17,6 C 17,6 C 4,9 C 47 % 36 % 1021,1 hPa 0,0 l/m 0,8 km/h (0 Bft) S 180 5 min 1,7 C 17,6 C 0,0 km/h (0 Bft)
27.04.2023 16:20 12,4 C 11,3 C 12,0 C 16,9 C 16,9 C 4,5 C 46 % 33 % 1021,1 hPa 0,0 l/m 0,3 km/h (0 Bft) W 270 5 min 1,1 C 16,9 C 0,0 km/h (0 Bft)
27.04.2023 16:25 12,4 C 11,4 C 12,1 C 17,7 C 17,7 C 5,3 C 47 % 33 % 1021,4 hPa 0,0 l/m 0,0 km/h (0 Bft) O-NO 67 5 min 1,4 C 17,7 C 0,0 km/h (0 Bft)
27.04.2023 16:31 13,0 C 11,4 C 13,0 C 18,7 C 18,7 C 5,7 C 46 % 35 % 1021,4 hPa 0,0 l/m 2,1 km/h (1 Bft) S-SW 202 6 min 1,7 C 18,7 C 4,7 km/h (1 Bft)
27.04.2023 16:35 13,0 C 11,4 C 13,0 C 18,7 C 18,7 C 5,7 C 46 % 35 % 1021,4 hPa 0,0 l/m 2,1 km/h (1 Bft) S-SW 202 4 min 1,7 C 18,7 C 4,7 km/h (1 Bft)
27.04.2023 16:42 12,5 C 11,4 C 12,2 C 16,6 C 16,6 C 4,1 C 45 % 35 % 1021,2 hPa 0,0 l/m 2,1 km/h (1 Bft) SW 225 7 min 0,9 C 16,6 C 2,7 km/h (1 Bft)
27.04.2023 16:43 12,5 C 11,4 C 12,2 C 16,6 C 16,6 C 4,1 C 45 % 35 % 1021,2 hPa 0,0 l/m 2,1 km/h (1 Bft) SW 225 1 min 0,9 C 16,6 C 2,7 km/h (1 Bft)
27.04.2023 16:44 12,5 C 11,4 C 12,2 C 16,6 C 16,6 C 4,1 C 45 % 35 % 1021,2 hPa 0,0 l/m 2,1 km/h (1 Bft) SW 225 1 min 0,9 C 16,6 C 2,7 km/h (1 Bft)
27.04.2023 16:45 12,1 C 11,4 C 11,5 C 15,2 C 15,2 C 3,1 C 47 % 35 % 1021,2 hPa 0,0 l/m 0,6 km/h (0 Bft) SW 225 0 min 1,1 C 15,2 C 0,0 km/h (0 Bft)
27.04.2023 16:46 12,1 C 11,4 C 11,5 C 15,2 C 15,2 C 3,1 C 47 % 35 % 1021,2 hPa 0,0 l/m 0,6 km/h (0 Bft) SW 225 0 min 1,1 C 15,2 C 0,0 km/h (0 Bft)
27.04.2023 16:48 12,1 C 11,4 C 11,5 C 15,2 C 15,2 C 3,1 C 47 % 35 % 1021,2 hPa 0,0 l/m 0,6 km/h (0 Bft) SW 225 0 min 1,1 C 15,2 C 0,0 km/h (0 Bft)
27.04.2023 16:50 12,1 C 11,4 C 11,5 C 15,2 C 15,2 C 3,1 C 47 % 35 % 1021,2 hPa 0,0 l/m 0,6 km/h (0 Bft) SW 225 0 min 1,1 C 15,2 C 0,0 km/h (0 Bft)
27.04.2023 16:55 12,1 C 11,4 C 11,3 C 14,3 C 14,3 C 2,2 C 47 % 36 % 1021,2 hPa 0,0 l/m 0,6 km/h (0 Bft) S 180 0 min 1,1 C 14,3 C 1,9 km/h (1 Bft)
27.04.2023 17:01 12,0 C 11,5 C 11,9 C 14,2 C 14,2 C 2,2 C 49 % 36 % 1021,2 hPa 0,0 l/m 0,3 km/h (0 Bft) W-SW 247 0 min 1,6 C 14,2 C 0,0 km/h (0 Bft)
27.04.2023 17:05 12,0 C 11,5 C 11,9 C 14,2 C 14,2 C 2,2 C 49 % 36 % 1021,2 hPa 0,0 l/m 0,3 km/h (0 Bft) W-SW 247 0 min 1,6 C 14,2 C 0,0 km/h (0 Bft)
27.04.2023 17:12 12,9 C 11,5 C 12,6 C 16,0 C 16,0 C 3,1 C 48 % 36 % 1021,2 hPa 0,0 l/m 1,0 km/h (0 Bft) SW 225 0 min 2,2 C 16,0 C 5,1 km/h (1 Bft)
27.04.2023 17:13 12,9 C 11,5 C 12,6 C 16,0 C 16,0 C 3,1 C 48 % 36 % 1021,2 hPa 0,0 l/m 1,0 km/h (0 Bft) SW 225 0 min 2,2 C 16,0 C 5,1 km/h (1 Bft)
27.04.2023 17:14 12,9 C 11,5 C 12,6 C 16,0 C 16,0 C 3,1 C 48 % 36 % 1021,2 hPa 0,0 l/m 1,0 km/h (0 Bft) SW 225 0 min 2,2 C 16,0 C 5,1 km/h (1 Bft)
27.04.2023 17:15 13,3 C 11,5 C 12,9 C 16,6 C 16,6 C 3,3 C 47 % 35 % 1021,2 hPa 0,0 l/m 1,6 km/h (1 Bft) SW 225 1 min 2,2 C 16,6 C 0,0 km/h (0 Bft)
27.04.2023 17:16 13,3 C 11,5 C 12,9 C 16,6 C 16,6 C 3,3 C 47 % 35 % 1021,2 hPa 0,0 l/m 1,6 km/h (1 Bft) SW 225 1 min 2,2 C 16,6 C 0,0 km/h (0 Bft)
27.04.2023 17:18 13,3 C 11,5 C 12,9 C 16,6 C 16,6 C 3,3 C 47 % 35 % 1021,2 hPa 0,0 l/m 1,6 km/h (1 Bft) SW 225 2 min 2,2 C 16,6 C 0,0 km/h (0 Bft)
27.04.2023 17:20 13,3 C 11,5 C 12,9 C 16,6 C 16,6 C 3,3 C 47 % 35 % 1021,2 hPa 0,0 l/m 1,6 km/h (1 Bft) SW 225 2 min 2,2 C 16,6 C 0,0 km/h (0 Bft)
27.04.2023 17:25 13,2 C 11,5 C 12,4 C 16,7 C 16,7 C 3,5 C 46 % 34 % 1021,5 hPa 0,0 l/m 1,6 km/h (1 Bft) W-SW 247 5 min 1,8 C 16,7 C 0,0 km/h (0 Bft)
27.04.2023 17:30 13,0 C 11,6 C 12,7 C 16,9 C 16,9 C 3,9 C 47 % 37 % 1021,5 hPa 0,0 l/m 0,3 km/h (0 Bft) SW 225 5 min 2,0 C 16,9 C 2,7 km/h (1 Bft)
27.04.2023 17:35 13,0 C 11,6 C 12,4 C 17,2 C 17,2 C 4,2 C 47 % 34 % 1021,5 hPa 0,0 l/m 0,5 km/h (0 Bft) O-SO 112 5 min 2,0 C 17,2 C 0,0 km/h (0 Bft)
27.04.2023 17:40 13,2 C 11,6 C 12,2 C 17,6 C 17,6 C 4,4 C 47 % 34 % 1021,5 hPa 0,0 l/m 0,5 km/h (0 Bft) W-SW 247 5 min 2,1 C 17,6 C 0,0 km/h (0 Bft)
27.04.2023 17:45 13,2 C 11,6 C 12,0 C 17,1 C 17,1 C 3,9 C 46 % 33 % 1021,1 hPa 0,0 l/m 0,6 km/h (0 Bft) SW 225 5 min 1,8 C 17,1 C 0,0 km/h (0 Bft)
27.04.2023 17:50 12,9 C 11,6 C 11,6 C 16,5 C 16,5 C 3,6 C 46 % 32 % 1021,1 hPa 0,0 l/m 0,5 km/h (0 Bft) SO 135 5 min 1,6 C 16,5 C 0,0 km/h (0 Bft)
27.04.2023 17:55 12,7 C 11,6 C 11,4 C 16,2 C 16,2 C 3,5 C 46 % 32 % 1021,1 hPa 0,0 l/m 0,5 km/h (0 Bft) N 360 5 min 1,4 C 16,2 C 0,0 km/h (0 Bft)
27.04.2023 18:00 12,4 C 11,6 C 11,5 C 15,5 C 15,5 C 3,1 C 47 % 33 % 1021,1 hPa 0,0 l/m 0,6 km/h (0 Bft) N-NW 337 0 min 1,4 C 15,5 C 0,0 km/h (0 Bft)
27.04.2023 18:06 12,3 C 11,7 C 11,3 C 15,3 C 15,3 C 3,0 C 48 % 33 % 1020,8 hPa 0,0 l/m 0,0 km/h (0 Bft) N-NO 22 0 min 1,6 C 15,3 C 0,0 km/h (0 Bft)
27.04.2023 18:10 12,3 C 11,7 C 11,3 C 15,3 C 15,3 C 3,0 C 48 % 33 % 1020,8 hPa 0,0 l/m 0,0 km/h (0 Bft) N-NO 22 0 min 1,6 C 15,3 C 0,0 km/h (0 Bft)
27.04.2023 18:17 12,5 C 11,7 C 11,2 C 15,4 C 15,4 C 2,9 C 48 % 33 % 1020,8 hPa 0,0 l/m 0,0 km/h (0 Bft) NO 45 0 min 1,8 C 15,4 C 0,0 km/h (0 Bft)
27.04.2023 18:18 12,5 C 11,7 C 11,2 C 15,4 C 15,4 C 2,9 C 48 % 33 % 1020,8 hPa 0,0 l/m 0,0 km/h (0 Bft) NO 45 0 min 1,8 C 15,4 C 0,0 km/h (0 Bft)
27.04.2023 18:19 12,5 C 11,7 C 11,2 C 15,4 C 15,4 C 2,9 C 48 % 33 % 1020,8 hPa 0,0 l/m 0,0 km/h (0 Bft) NO 45 0 min 1,8 C 15,4 C 0,0 km/h (0 Bft)
27.04.2023 18:20 12,4 C 11,7 C 11,3 C 15,6 C 15,6 C 3,2 C 48 % 32 % 1020,7 hPa 0,0 l/m 0,2 km/h (0 Bft) W-SW 247 1 min 1,7 C 15,6 C 2,1 km/h (1 Bft)
27.04.2023 18:21 12,4 C 11,7 C 11,3 C 15,6 C 15,6 C 3,2 C 48 % 32 % 1020,7 hPa 0,0 l/m 0,2 km/h (0 Bft) W-SW 247 1 min 1,7 C 15,6 C 2,1 km/h (1 Bft)
27.04.2023 18:23 12,4 C 11,7 C 11,3 C 15,6 C 15,6 C 3,2 C 48 % 32 % 1020,7 hPa 0,0 l/m 0,2 km/h (0 Bft) W-SW 247 2 min 1,7 C 15,6 C 2,1 km/h (1 Bft)
27.04.2023 18:25 12,4 C 11,7 C 11,3 C 15,6 C 15,6 C 3,2 C 48 % 32 % 1020,7 hPa 0,0 l/m 0,2 km/h (0 Bft) W-SW 247 2 min 1,7 C 15,6 C 2,1 km/h (1 Bft)
27.04.2023 18:30 12,4 C 11,7 C 11,0 C 15,8 C 15,8 C 3,4 C 48 % 33 % 1020,7 hPa 0,0 l/m 0,2 km/h (0 Bft) W-SW 247 5 min 1,7 C 15,8 C 0,0 km/h (0 Bft)
27.04.2023 18:35 12,5 C 11,7 C 11,1 C 15,6 C 15,6 C 3,1 C 48 % 32 % 1020,7 hPa 0,0 l/m 0,3 km/h (0 Bft) S 180 5 min 1,8 C 15,6 C 0,0 km/h (0 Bft)
27.04.2023 18:40 12,3 C 11,7 C 10,9 C 15,4 C 15,4 C 3,1 C 48 % 33 % 1020,7 hPa 0,0 l/m 0,2 km/h (0 Bft) SO 135 5 min 1,6 C 15,4 C 0,0 km/h (0 Bft)
27.04.2023 18:45 12,4 C 11,7 C 10,8 C 15,8 C 15,8 C 3,4 C 48 % 32 % 1020,6 hPa 0,0 l/m 0,2 km/h (0 Bft) NO 45 5 min 1,7 C 15,8 C 0,0 km/h (0 Bft)
27.04.2023 18:50 12,4 C 11,7 C 10,8 C 15,5 C 15,5 C 3,1 C 47 % 33 % 1020,6 hPa 0,0 l/m 0,2 km/h (0 Bft) N-NO 22 5 min 1,4 C 15,5 C 0,0 km/h (0 Bft)
27.04.2023 18:55 12,3 C 11,8 C 10,7 C 15,0 C 15,0 C 2,7 C 47 % 33 % 1020,6 hPa 0,0 l/m 0,3 km/h (0 Bft) N-NO 22 5 min 1,3 C 15,0 C 0,0 km/h (0 Bft)
27.04.2023 19:00 12,3 C 11,8 C 10,6 C 14,6 C 14,6 C 2,3 C 48 % 33 % 1020,6 hPa 0,0 l/m 0,2 km/h (0 Bft) O-NO 67 5 min 1,6 C 14,6 C 0,0 km/h (0 Bft)
27.04.2023 19:05 12,1 C 11,8 C 10,5 C 14,6 C 14,6 C 2,5 C 48 % 33 % 1020,5 hPa 0,0 l/m 0,0 km/h (0 Bft) N-NW 337 5 min 1,4 C 14,6 C 3,1 km/h (1 Bft)
27.04.2023 19:10 12,0 C 11,8 C 10,5 C 14,2 C 14,2 C 2,2 C 48 % 33 % 1020,5 hPa 0,0 l/m 0,2 km/h (0 Bft) W 270 5 min 1,3 C 14,2 C 0,0 km/h (0 Bft)
27.04.2023 19:15 11,8 C 11,8 C 10,3 C 13,6 C 13,6 C 1,8 C 49 % 33 % 1020,5 hPa 0,0 l/m 0,2 km/h (0 Bft) W 270 5 min 1,4 C 13,6 C 0,0 km/h (0 Bft)
27.04.2023 19:20 11,6 C 11,8 C 10,1 C 12,9 C 12,9 C 1,3 C 49 % 33 % 1020,5 hPa 0,0 l/m 0,2 km/h (0 Bft) N-NW 337 0 min 1,3 C 12,9 C 0,0 km/h (0 Bft)
27.04.2023 19:25 11,4 C 11,8 C 10,0 C 12,6 C 12,6 C 1,2 C 49 % 33 % 1020,7 hPa 0,0 l/m 0,0 km/h (0 Bft) NO 45 0 min 1,1 C 12,6 C 0,0 km/h (0 Bft)
27.04.2023 19:30 11,2 C 11,8 C 9,6 C 11,9 C 11,9 C 0,7 C 50 % 33 % 1020,7 hPa 0,0 l/m 0,0 km/h (0 Bft) O-NO 67 0 min 1,2 C 11,9 C 0,0 km/h (0 Bft)
27.04.2023 19:35 11,1 C 11,8 C 9,3 C 11,3 C 11,3 C 0,2 C 50 % 34 % 1020,7 hPa 0,0 l/m 0,0 km/h (0 Bft) N-NO 22 0 min 1,1 C 11,3 C 0,0 km/h (0 Bft)
27.04.2023 19:40 10,8 C 11,8 C 9,0 C 10,8 C 10,7 C 0,0 C 50 % 34 % 1020,7 hPa 0,0 l/m 0,0 km/h (0 Bft) N-NO 22 0 min 0,8 C 10,7 C 0,0 km/h (0 Bft)
27.04.2023 19:45 10,6 C 11,9 C 8,6 C 10,5 C 10,2 C 0,0 C 51 % 35 % 1020,7 hPa 0,0 l/m 0,0 km/h (0 Bft) O-NO 67 0 min 0,9 C 10,2 C 0,0 km/h (0 Bft)
27.04.2023 19:50 10,3 C 11,9 C 8,3 C 10,1 C 9,7 C 0,0 C 52 % 36 % 1020,7 hPa 0,0 l/m 0,0 km/h (0 Bft) NO 45 0 min 0,9 C 9,7 C 0,0 km/h (0 Bft)
27.04.2023 19:55 10,1 C 11,9 C 7,9 C 9,9 C 9,4 C 0,0 C 53 % 37 % 1020,7 hPa 0,0 l/m 0,0 km/h (0 Bft) NO 45 0 min 1,0 C 9,4 C 0,0 km/h (0 Bft)
27.04.2023 20:00 9,9 C 11,9 C 7,9 C 9,7 C 9,2 C 0,0 C 54 % 38 % 1020,7 hPa 0,0 l/m 0,0 km/h (0 Bft) O 90 0 min 1,0 C 9,2 C 0,0 km/h (0 Bft)
27.04.2023 20:06 9,6 C 11,9 C 8,1 C 9,3 C 8,7 C 0,0 C 55 % 39 % 1021,0 hPa 0,0 l/m 0,0 km/h (0 Bft) O-NO 67 0 min 1,0 C 8,7 C 0,0 km/h (0 Bft)
27.04.2023 20:10 9,6 C 11,9 C 8,1 C 9,3 C 8,7 C 0,0 C 55 % 39 % 1021,0 hPa 0,0 l/m 0,0 km/h (0 Bft) O-NO 67 0 min 1,0 C 8,7 C 0,0 km/h (0 Bft)
27.04.2023 20:17 9,2 C 11,9 C 7,4 C 8,8 C 8,1 C 0,0 C 57 % 40 % 1021,0 hPa 0,0 l/m 0,0 km/h (0 Bft) O-NO 67 0 min 1,1 C 8,1 C 0,0 km/h (0 Bft)
27.04.2023 20:18 9,2 C 11,9 C 7,4 C 8,8 C 8,1 C 0,0 C 57 % 40 % 1021,0 hPa 0,0 l/m 0,0 km/h (0 Bft) O-NO 67 0 min 1,1 C 8,1 C 0,0 km/h (0 Bft)
27.04.2023 20:19 9,2 C 11,9 C 7,4 C 8,8 C 8,1 C 0,0 C 57 % 40 % 1021,0 hPa 0,0 l/m 0,0 km/h (0 Bft) O-NO 67 0 min 1,1 C 8,1 C 0,0 km/h (0 Bft)
27.04.2023 20:20 9,1 C 11,9 C 7,4 C 8,7 C 7,8 C 0,0 C 57 % 42 % 1020,9 hPa 0,0 l/m 0,0 km/h (0 Bft) NO 45 0 min 1,0 C 7,8 C 0,0 km/h (0 Bft)
27.04.2023 20:21 9,1 C 11,9 C 7,4 C 8,7 C 7,8 C 0,0 C 57 % 42 % 1020,9 hPa 0,0 l/m 0,0 km/h (0 Bft) NO 45 0 min 1,0 C 7,8 C 0,0 km/h (0 Bft)
27.04.2023 20:23 9,1 C 11,9 C 7,4 C 8,7 C 7,8 C 0,0 C 57 % 42 % 1020,9 hPa 0,0 l/m 0,0 km/h (0 Bft) NO 45 0 min 1,0 C 7,8 C 0,0 km/h (0 Bft)
27.04.2023 20:25 9,1 C 11,9 C 7,4 C 8,7 C 7,8 C 0,0 C 57 % 42 % 1020,9 hPa 0,0 l/m 0,0 km/h (0 Bft) NO 45 0 min 1,0 C 7,8 C 0,0 km/h (0 Bft)
27.04.2023 20:34 8,7 C 11,9 C 7,2 C 8,3 C 7,6 C 0,0 C 59 % 44 % 1020,9 hPa 0,0 l/m 0,0 km/h (0 Bft) NO 45 0 min 1,1 C 7,6 C 0,0 km/h (0 Bft)
27.04.2023 20:35 8,7 C 11,9 C 7,2 C 8,3 C 7,6 C 0,0 C 59 % 44 % 1020,9 hPa 0,0 l/m 0,0 km/h (0 Bft) NO 45 0 min 1,1 C 7,6 C 0,0 km/h (0 Bft)
27.04.2023 20:45 8,3 C 11,9 C 6,4 C 7,8 C 6,8 C 0,0 C 61 % 45 % 1021,2 hPa 0,0 l/m 0,0 km/h (0 Bft) NO 45 0 min 1,2 C 6,8 C 0,0 km/h (0 Bft)
27.04.2023 20:46 8,3 C 11,9 C 6,4 C 7,8 C 6,8 C 0,0 C 61 % 45 % 1021,2 hPa 0,0 l/m 0,0 km/h (0 Bft) NO 45 0 min 1,2 C 6,8 C 0,0 km/h (0 Bft)
27.04.2023 20:47 8,3 C 11,9 C 6,4 C 7,8 C 6,8 C 0,0 C 61 % 45 % 1021,2 hPa 0,0 l/m 0,0 km/h (0 Bft) NO 45 0 min 1,2 C 6,8 C 0,0 km/h (0 Bft)
27.04.2023 20:48 8,3 C 11,9 C 6,4 C 7,8 C 6,8 C 0,0 C 61 % 45 % 1021,2 hPa 0,0 l/m 0,0 km/h (0 Bft) NO 45 0 min 1,2 C 6,8 C 0,0 km/h (0 Bft)
27.04.2023 20:49 8,3 C 11,9 C 6,4 C 7,8 C 6,8 C 0,0 C 61 % 45 % 1021,2 hPa 0,0 l/m 0,0 km/h (0 Bft) NO 45 0 min 1,2 C 6,8 C 0,0 km/h (0 Bft)
27.04.2023 20:51 8,0 C 11,9 C 6,4 C 7,5 C 6,6 C 0,0 C 61 % 46 % 1021,2 hPa 0,0 l/m 0,0 km/h (0 Bft) NO 45 0 min 0,9 C 6,6 C 0,0 km/h (0 Bft)
27.04.2023 20:55 8,0 C 11,9 C 6,4 C 7,5 C 6,6 C 0,0 C 61 % 46 % 1021,2 hPa 0,0 l/m 0,0 km/h (0 Bft) NO 45 0 min 0,9 C 6,6 C 0,0 km/h (0 Bft)
27.04.2023 21:00 7,9 C 11,9 C 5,9 C 7,4 C 6,4 C 0,0 C 62 % 47 % 1021,2 hPa 0,0 l/m 0,0 km/h (0 Bft) NO 45 0 min 1,1 C 6,4 C 0,0 km/h (0 Bft)
27.04.2023 21:05 7,7 C 11,9 C 6,0 C 7,2 C 6,2 C 0,0 C 62 % 47 % 1021,4 hPa 0,0 l/m 0,0 km/h (0 Bft) NO 45 0 min 0,9 C 6,2 C 0,0 km/h (0 Bft)
27.04.2023 21:10 7,5 C 11,9 C 5,7 C 7,0 C 6,1 C 0,0 C 63 % 47 % 1021,4 hPa 0,0 l/m 0,0 km/h (0 Bft) NO 45 0 min 0,9 C 6,1 C 0,0 km/h (0 Bft)
27.04.2023 21:15 7,5 C 11,9 C 5,7 C 7,0 C 6,0 C 0,0 C 63 % 49 % 1021,4 hPa 0,0 l/m 0,0 km/h (0 Bft) NO 45 0 min 0,9 C 6,0 C 0,0 km/h (0 Bft)
27.04.2023 21:20 7,2 C 11,9 C 5,6 C 6,7 C 5,8 C 0,0 C 65 % 50 % 1021,4 hPa 0,0 l/m 0,0 km/h (0 Bft) O-NO 67 0 min 1,1 C 5,8 C 0,0 km/h (0 Bft)
27.04.2023 21:25 7,1 C 11,9 C 5,5 C 6,6 C 5,6 C 0,0 C 65 % 51 % 1021,8 hPa 0,0 l/m 0,0 km/h (0 Bft) NO 45 0 min 1,0 C 5,6 C 0,0 km/h (0 Bft)
27.04.2023 21:30 6,8 C 11,9 C 5,3 C 6,4 C 5,6 C 0,0 C 66 % 51 % 1021,8 hPa 0,0 l/m 0,0 km/h (0 Bft) NO 45 0 min 0,9 C 5,6 C 0,0 km/h (0 Bft)
27.04.2023 21:35 6,8 C 11,9 C 5,3 C 6,4 C 5,5 C 0,0 C 67 % 51 % 1021,8 hPa 0,0 l/m 0,0 km/h (0 Bft) NO 45 0 min 1,1 C 5,5 C 0,0 km/h (0 Bft)
27.04.2023 21:40 6,7 C 11,9 C 5,2 C 6,3 C 5,4 C 0,0 C 68 % 52 % 1021,8 hPa 0,0 l/m 0,0 km/h (0 Bft) NO 45 0 min 1,2 C 5,4 C 0,0 km/h (0 Bft)
27.04.2023 21:45 6,5 C 11,9 C 5,2 C 6,1 C 5,4 C 0,0 C 68 % 53 % 1021,1 hPa 0,0 l/m 0,0 km/h (0 Bft) NO 45 0 min 1,0 C 5,4 C 0,0 km/h (0 Bft)
27.04.2023 21:50 6,4 C 11,9 C 5,0 C 6,0 C 5,3 C 0,0 C 69 % 53 % 1021,1 hPa 0,0 l/m 0,0 km/h (0 Bft) NO 45 0 min 1,1 C 5,3 C 0,0 km/h (0 Bft)
27.04.2023 21:55 6,3 C 11,9 C 4,9 C 6,0 C 5,3 C 0,0 C 70 % 54 % 1021,1 hPa 0,0 l/m 0,0 km/h (0 Bft) NO 45 0 min 1,2 C 5,3 C 0,0 km/h (0 Bft)
27.04.2023 22:00 6,3 C 11,9 C 4,9 C 5,9 C 5,2 C 0,0 C 70 % 54 % 1021,1 hPa 0,0 l/m 0,0 km/h (0 Bft) W-NW 292 0 min 1,2 C 5,2 C 0,0 km/h (0 Bft)
27.04.2023 22:05 6,3 C 11,9 C 5,1 C 5,9 C 5,2 C 0,0 C 70 % 54 % 1021,2 hPa 0,0 l/m 0,0 km/h (0 Bft) W-NW 292 0 min 1,2 C 5,2 C 0,0 km/h (0 Bft)
27.04.2023 22:10 6,1 C 12,0 C 4,9 C 5,8 C 5,1 C 0,0 C 71 % 54 % 1021,2 hPa 0,0 l/m 0,0 km/h (0 Bft) W-NW 292 0 min 1,2 C 5,1 C 0,0 km/h (0 Bft)
27.04.2023 22:15 6,1 C 12,0 C 4,8 C 5,7 C 5,0 C 0,0 C 71 % 54 % 1021,2 hPa 0,0 l/m 0,0 km/h (0 Bft) W-NW 292 0 min 1,2 C 5,0 C 0,0 km/h (0 Bft)
27.04.2023 22:20 6,0 C 12,0 C 4,6 C 5,6 C 4,7 C 0,0 C 72 % 54 % 1021,2 hPa 0,0 l/m 0,0 km/h (0 Bft) W-NW 292 0 min 1,3 C 4,7 C 0,0 km/h (0 Bft)
27.04.2023 22:25 5,9 C 12,0 C 4,6 C 5,4 C 4,5 C 0,0 C 72 % 55 % 1021,2 hPa 0,0 l/m 0,0 km/h (0 Bft) W-NW 292 0 min 1,2 C 4,5 C 0,0 km/h (0 Bft)
27.04.2023 22:31 5,6 C 12,0 C 4,3 C 5,1 C 4,2 C 0,0 C 73 % 56 % 1021,2 hPa 0,0 l/m 0,0 km/h (0 Bft) SW 225 0 min 1,2 C 4,2 C 0,0 km/h (0 Bft)
27.04.2023 22:35 5,6 C 12,0 C 4,3 C 5,1 C 4,2 C 0,0 C 73 % 56 % 1021,2 hPa 0,0 l/m 0,0 km/h (0 Bft) SW 225 0 min 1,2 C 4,2 C 0,0 km/h (0 Bft)
27.04.2023 22:42 5,5 C 12,0 C 4,0 C 4,9 C 3,8 C 0,0 C 74 % 56 % 1021,2 hPa 0,0 l/m 0,0 km/h (0 Bft) SW 225 0 min 1,2 C 3,8 C 0,0 km/h (0 Bft)
27.04.2023 22:43 5,5 C 12,0 C 4,0 C 4,9 C 3,8 C 0,0 C 74 % 56 % 1021,2 hPa 0,0 l/m 0,0 km/h (0 Bft) SW 225 0 min 1,2 C 3,8 C 0,0 km/h (0 Bft)
27.04.2023 22:44 5,5 C 12,0 C 4,0 C 4,9 C 3,8 C 0,0 C 74 % 56 % 1021,2 hPa 0,0 l/m 0,0 km/h (0 Bft) SW 225 0 min 1,2 C 3,8 C 0,0 km/h (0 Bft)
27.04.2023 22:45 5,2 C 11,9 C 3,9 C 4,7 C 3,6 C 0,0 C 74 % 57 % 1021,2 hPa 0,0 l/m 0,0 km/h (0 Bft) SW 225 0 min 1,0 C 3,6 C 0,0 km/h (0 Bft)
27.04.2023 22:46 5,2 C 11,9 C 3,9 C 4,7 C 3,6 C 0,0 C 74 % 57 % 1021,2 hPa 0,0 l/m 0,0 km/h (0 Bft) SW 225 0 min 1,0 C 3,6 C 0,0 km/h (0 Bft)
27.04.2023 22:48 5,2 C 11,9 C 3,9 C 4,7 C 3,6 C 0,0 C 74 % 57 % 1021,2 hPa 0,0 l/m 0,0 km/h (0 Bft) SW 225 0 min 1,0 C 3,6 C 0,0 km/h (0 Bft)
27.04.2023 22:50 5,2 C 11,9 C 3,9 C 4,7 C 3,6 C 0,0 C 74 % 57 % 1021,2 hPa 0,0 l/m 0,0 km/h (0 Bft) SW 225 0 min 1,0 C 3,6 C 0,0 km/h (0 Bft)
27.04.2023 22:55 5,2 C 12,0 C 3,7 C 4,7 C 3,6 C 0,0 C 74 % 57 % 1021,2 hPa 0,0 l/m 0,0 km/h (0 Bft) SW 225 0 min 1,0 C 3,6 C 0,0 km/h (0 Bft)
27.04.2023 23:00 5,1 C 11,9 C 3,6 C 4,6 C 3,6 C 0,0 C 74 % 57 % 1021,2 hPa 0,0 l/m 0,0 km/h (0 Bft) SW 225 0 min 0,9 C 3,6 C 0,0 km/h (0 Bft)
27.04.2023 23:05 4,9 C 11,9 C 3,6 C 4,4 C 3,4 C 0,0 C 74 % 57 % 1021,0 hPa 0,0 l/m 0,0 km/h (0 Bft) SW 225 0 min 0,7 C 3,4 C 0,0 km/h (0 Bft)
27.04.2023 23:10 4,9 C 11,9 C 3,5 C 4,4 C 3,3 C 0,0 C 75 % 57 % 1021,0 hPa 0,0 l/m 0,0 km/h (0 Bft) SW 225 0 min 0,8 C 3,3 C 0,0 km/h (0 Bft)
27.04.2023 23:15 4,8 C 11,9 C 3,5 C 4,3 C 3,2 C 0,0 C 75 % 58 % 1021,0 hPa 0,0 l/m 0,0 km/h (0 Bft) SW 225 0 min 0,8 C 3,2 C 0,0 km/h (0 Bft)
27.04.2023 23:20 4,7 C 11,9 C 3,5 C 4,2 C 3,2 C 0,0 C 75 % 58 % 1021,0 hPa 0,0 l/m 0,0 km/h (0 Bft) SW 225 0 min 0,7 C 3,2 C 0,0 km/h (0 Bft)
27.04.2023 23:25 4,7 C 11,9 C 3,3 C 4,2 C 3,2 C 0,0 C 75 % 57 % 1020,9 hPa 0,0 l/m 0,0 km/h (0 Bft) SW 225 0 min 0,7 C 3,2 C 0,0 km/h (0 Bft)
27.04.2023 23:30 4,5 C 11,9 C 3,2 C 4,0 C 3,0 C 0,0 C 75 % 57 % 1020,9 hPa 0,0 l/m 0,0 km/h (0 Bft) SW 225 0 min 0,5 C 3,0 C 0,0 km/h (0 Bft)
27.04.2023 23:35 4,4 C 11,9 C 3,2 C 3,9 C 3,0 C 0,0 C 76 % 58 % 1020,9 hPa 0,0 l/m 0,0 km/h (0 Bft) SW 225 0 min 0,5 C 3,0 C 0,0 km/h (0 Bft)
27.04.2023 23:41 4,2 C 11,9 C 3,1 C 3,7 C 2,8 C 0,0 C 76 % 58 % 1020,8 hPa 0,0 l/m 0,0 km/h (0 Bft) SW 225 0 min 0,4 C 2,8 C 0,0 km/h (0 Bft)
27.04.2023 23:45 4,2 C 11,9 C 3,1 C 3,7 C 2,8 C 0,0 C 76 % 58 % 1020,8 hPa 0,0 l/m 0,0 km/h (0 Bft) SW 225 0 min 0,4 C 2,8 C 0,0 km/h (0 Bft)
27.04.2023 23:52 4,1 C 11,9 C 3,1 C 3,7 C 3,0 C 0,0 C 76 % 59 % 1020,8 hPa 0,0 l/m 0,0 km/h (0 Bft) SW 225 0 min 0,3 C 3,0 C 0,0 km/h (0 Bft)
27.04.2023 23:53 4,1 C 11,9 C 3,1 C 3,7 C 3,0 C 0,0 C 76 % 59 % 1020,8 hPa 0,0 l/m 0,0 km/h (0 Bft) SW 225 0 min 0,3 C 3,0 C 0,0 km/h (0 Bft)
27.04.2023 23:54 4,1 C 11,9 C 3,1 C 3,7 C 3,0 C 0,0 C 76 % 59 % 1020,8 hPa 0,0 l/m 0,0 km/h (0 Bft) SW 225 0 min 0,3 C 3,0 C 0,0 km/h (0 Bft)
27.04.2023 23:55 4,1 C 11,9 C 3,0 C 3,8 C 3,1 C 0,0 C 77 % 59 % 1020,8 hPa 0,0 l/m 0,0 km/h (0 Bft) SW 225 0 min 0,4 C 3,1 C 0,0 km/h (0 Bft)
27.04.2023 23:56 4,1 C 11,9 C 3,0 C 3,8 C 3,1 C 0,0 C 77 % 59 % 1020,8 hPa 0,0 l/m 0,0 km/h (0 Bft) SW 225 0 min 0,4 C 3,1 C 0,0 km/h (0 Bft)
27.04.2023 23:58 4,1 C 11,9 C 3,0 C 3,8 C 3,1 C 0,0 C 77 % 59 % 1020,8 hPa 0,0 l/m 0,0 km/h (0 Bft) SW 225 0 min 0,4 C 3,1 C 0,0 km/h (0 Bft)
_ Min-Zeit 06:00 08:52 05:57 05:46 05:46 00:00 16:42 12:40 03:05 - 00:00 - - - 06:00 05:46 00:00
Minimum _ -1,6 C 10,1 C -2,7 C -2,1 C -3,4 C 0,0 C 45 % 31 % 1019,8 hPa - 0,0 km/h (0 Bft) - - - -3,8 C -3,4 C 0,0 km/h (0 Bft)
_ Max-Zeit 15:30 22:10 14:40 15:30 15:30 08:11 08:22 08:11 10:45 00:00 11:40 - - 09:20 09:40 15:30 13:50
Maximum _ 13,3 C 12,0 C 14,8 C 20,2 C 20,2 C 10,3 C 89 % 73 % 1022,0 hPa 0,0 l/m 3,2 km/h
SW (1 Bft)
- - 10 min 3,7 C 20,2 C 11,3 km/h
W-SW (2 Bft)
Durchschnitt _ 6,2 C 11,1 C 5,9 C 8,4 C 7,9 C 2,5 C 68 % 50 % 1020,9 hPa #0,0 l/m 0,4 km/h (0 Bft) SW - #10:52 h 0,2 C 7,9 C 0,7 km/h (0 Bft)
2023 www.wetterstation-wechselburg.de